Observation data for Panhandle on 11/09/2019      Previous  Date       Current Mesonet Observations  Soil Data  Daily Summary Page  Observations in Plain Language
KPA1 090600Z 24006KT 01/01 A3027 RMK A01 T00140013  RH  100%=      5-min Rain = 0
KPA1 090601Z 24005KT 01/01 A3027 RMK A01 T00140014  RH  100%=      5-min Rain = 0
KPA1 090602Z 24005KT 01/01 A3027 RMK A01 T00140014  RH  100%=      5-min Rain = 0
KPA1 090603Z 24005KT 02/01 A3027 RMK A01 T00150014  RH  100%=      5-min Rain = 0
KPA1 090604Z 24005KT 02/02 A3027 RMK A01 T00160015  RH  100%=      5-min Rain = 0
KPA1 090605Z 24005KT 02/02 A3027 RMK A01 T00160015  RH  100%=      5-min Rain = 0
KPA1 090606Z 25005KT 02/02 A3027 RMK A01 T00160015  RH  100%=      5-min Rain = 0
KPA1 090607Z 24005KT 02/02 A3027 RMK A01 T00160016  RH  100%=      5-min Rain = 0
KPA1 090608Z 24005KT 02/02 A3027 RMK A01 T00160016  RH  100%=      5-min Rain = 0
KPA1 090609Z 24005KT 02/02 A3027 RMK A01 T00160016  RH  100%=      5-min Rain = 0
KPA1 090610Z 25005KT 02/02 A3027 RMK A01 T00170016  RH  100%=      5-min Rain = 0
KPA1 090611Z 25004KT 02/02 A3027 RMK A01 T00170017  RH  100%=      5-min Rain = 0
KPA1 090612Z 26004KT 02/02 A3027 RMK A01 T00180017  RH  100%=      5-min Rain = 0
KPA1 090613Z 25005KT 02/02 A3027 RMK A01 T00180017  RH  100%=      5-min Rain = 0
KPA1 090614Z 25006KT 02/02 A3027 RMK A01 T00180017  RH  100%=      5-min Rain = 0
KPA1 090615Z 25005KT 02/02 A3027 RMK A01 T00180017  RH  100%=      5-min Rain = 0
KPA1 090616Z 26004KT 02/02 A3027 RMK A01 T00160015  RH  099%=      5-min Rain = 0
KPA1 090617Z 26003KT 01/01 A3027 RMK A01 T00130012  RH  099%=      5-min Rain = 0
KPA1 090618Z 27003KT 01/01 A3027 RMK A01 T00120011  RH  099%=      5-min Rain = 0
KPA1 090619Z 27004KT 01/01 A3027 RMK A01 T00130011  RH  099%=      5-min Rain = 0
KPA1 090620Z 27005KT 01/01 A3027 RMK A01 T00140013  RH  099%=      5-min Rain = 0
KPA1 090621Z 26004KT 02/01 A3027 RMK A01 T00150014  RH  099%=      5-min Rain = 0
KPA1 090622Z 26004KT 02/01 A3027 RMK A01 T00150014  RH  099%=      5-min Rain = 0
KPA1 090623Z 26005KT 02/01 A3027 RMK A01 T00150014  RH  099%=      5-min Rain = 0
KPA1 090624Z 26005KT 02/02 A3027 RMK A01 T00160015  RH  100%=      5-min Rain = 0
KPA1 090625Z 26005KT 02/02 A3027 RMK A01 T00170016  RH  100%=      5-min Rain = 0
KPA1 090626Z 26005KT 02/02 A3026 RMK A01 T00170017  RH  100%=      5-min Rain = 0
KPA1 090627Z 26005KT 02/02 A3026 RMK A01 T00170017  RH  100%=      5-min Rain = 0
KPA1 090628Z 26005KT 02/02 A3026 RMK A01 T00180017  RH  100%=      5-min Rain = 0
KPA1 090629Z 26005KT 02/02 A3026 RMK A01 T00180017  RH  100%=      5-min Rain = 0
KPA1 090630Z 26005KT 02/02 A3026 RMK A01 T00180017  RH  100%=      5-min Rain = 0
KPA1 090631Z 26006KT 02/02 A3026 RMK A01 T00170016  RH  099%=      5-min Rain = 0
KPA1 090632Z 25006KT 02/02 A3026 RMK A01 T00160015  RH  099%=      5-min Rain = 0
KPA1 090633Z 25006KT 02/01 A3026 RMK A01 T00150013  RH  099%=      5-min Rain = 0
KPA1 090634Z 25006KT 01/01 A3026 RMK A01 T00140012  RH  099%=      5-min Rain = 0
KPA1 090635Z 25006KT 01/01 A3026 RMK A01 T00130011  RH  099%=      5-min Rain = 0
KPA1 090636Z 25006KT 01/01 A3026 RMK A01 T00110010  RH  099%=      5-min Rain = 0
KPA1 090637Z 25006KT 01/01 A3026 RMK A01 T00100008  RH  099%=      5-min Rain = 0
KPA1 090638Z 25006KT 01/01 A3026 RMK A01 T00090007  RH  098%=      5-min Rain = 0
KPA1 090639Z 25006KT 01/01 A3026 RMK A01 T00080006  RH  098%=      5-min Rain = 0
KPA1 090640Z 25005KT 01/01 A3026 RMK A01 T00080006  RH  099%=      5-min Rain = 0
KPA1 090641Z 25005KT 01/01 A3026 RMK A01 T00080006  RH  099%=      5-min Rain = 0
KPA1 090642Z 25005KT 01/01 A3026 RMK A01 T00080006  RH  099%=      5-min Rain = 0
KPA1 090643Z 25004KT 01/01 A3026 RMK A01 T00090008  RH  099%=      5-min Rain = 0
KPA1 090644Z 26004KT 01/01 A3026 RMK A01 T00090008  RH  099%=      5-min Rain = 0
KPA1 090645Z 26003KT 01/01 A3026 RMK A01 T00090007  RH  099%=      5-min Rain = 0
KPA1 090646Z 26003KT 01/01 A3026 RMK A01 T00080006  RH  099%=      5-min Rain = 0
KPA1 090647Z 26002KT 01/01 A3026 RMK A01 T00070005  RH  099%=      5-min Rain = 0
KPA1 090648Z 27003KT 01/01 A3026 RMK A01 T00070005  RH  099%=      5-min Rain = 0
KPA1 090649Z 28003KT 01/00 A3026 RMK A01 T00060004  RH  099%=      5-min Rain = 0
KPA1 090650Z 28003KT 01/00 A3026 RMK A01 T00060004  RH  099%=      5-min Rain = 0
KPA1 090651Z 28003KT 01/01 A3026 RMK A01 T00070006  RH  099%=      5-min Rain = 0
KPA1 090652Z 28003KT 01/01 A3026 RMK A01 T00080007  RH  099%=      5-min Rain = 0
KPA1 090653Z 27003KT 01/01 A3026 RMK A01 T00090008  RH  099%=      5-min Rain = 0
KPA1 090654Z 27003KT 01/01 A3026 RMK A01 T00090008  RH  099%=      5-min Rain = 0
KPA1 090655Z 27003KT 01/01 A3026 RMK A01 T00090008  RH  099%=      5-min Rain = 0
KPA1 090656Z 28003KT 01/01 A3026 RMK A01 T00090009  RH  099%=      5-min Rain = 0
KPA1 090657Z 28003KT 01/01 A3026 RMK A01 T00110010  RH  100%=      5-min Rain = 0
KPA1 090658Z 29004KT 01/01 A3026 RMK A01 T00120012  RH  100%=      5-min Rain = 0
KPA1 090659Z 29004KT 01/01 A3026 RMK A01 T00130013  RH  100%=      5-min Rain = 0
KPA1 090700Z 29004KT 01/01 A3026 RMK A01 T00140014  RH  100%=      5-min Rain = 0
KPA1 090701Z 29004KT 01/01 A3026 RMK A01 T00140014  RH  100%=      5-min Rain = 0
KPA1 090702Z 29004KT 01/01 A3026 RMK A01 T00140013  RH  100%=      5-min Rain = 0
KPA1 090703Z 29004KT 01/01 A3026 RMK A01 T00140013  RH  100%=      5-min Rain = 0
KPA1 090704Z 29004KT 01/01 A3026 RMK A01 T00130013  RH  100%=      5-min Rain = 0
KPA1 090705Z 29004KT 02/02 A3026 RMK A01 T00160015  RH  100%=      5-min Rain = 0
KPA1 090706Z 29004KT 02/02 A3026 RMK A01 T00180017  RH  100%=      5-min Rain = 0
KPA1 090707Z 29004KT 02/02 A3026 RMK A01 T00190019  RH  100%=      5-min Rain = 0
KPA1 090708Z 28004KT 02/02 A3026 RMK A01 T00200020  RH  100%=      5-min Rain = 0
KPA1 090709Z 28004KT 02/02 A3026 RMK A01 T00210021  RH  100%=      5-min Rain = 0
KPA1 090710Z 28004KT 02/02 A3026 RMK A01 T00210021  RH  100%=      5-min Rain = 0
KPA1 090711Z 27004KT 02/02 A3026 RMK A01 T00220021  RH  100%=      5-min Rain = 0
KPA1 090712Z 27004KT 02/02 A3026 RMK A01 T00220021  RH  100%=      5-min Rain = 0
KPA1 090713Z 26005KT 02/02 A3026 RMK A01 T00220021  RH  100%=      5-min Rain = 0
KPA1 090714Z 26005KT 02/02 A3026 RMK A01 T00220021  RH  099%=      5-min Rain = 0
KPA1 090715Z 25005KT 02/02 A3026 RMK A01 T00200019  RH  099%=      5-min Rain = 0
KPA1 090722Z 23006KT 01/00 A3026 RMK A01 T00070004  RH  098%=      5-min Rain = 0
KPA1 090723Z 23006KT 01/01 A3026 RMK A01 T00070005  RH  098%=      5-min Rain = 0
KPA1 090724Z 23006KT 01/00 A3026 RMK A01 T00070004  RH  098%=      5-min Rain = 0
KPA1 090725Z 23006KT 01/00 A3026 RMK A01 T00070004  RH  098%=      5-min Rain = 0
KPA1 090726Z 23005KT 01/01 A3026 RMK A01 T00070005  RH  099%=      5-min Rain = 0
KPA1 090727Z 23005KT 01/01 A3026 RMK A01 T00070005  RH  099%=      5-min Rain = 0
KPA1 090728Z 23004KT 01/01 A3026 RMK A01 T00070006  RH  099%=      5-min Rain = 0
KPA1 090729Z 24005KT 01/01 A3025 RMK A01 T00080006  RH  099%=      5-min Rain = 0
KPA1 090730Z 23006KT 01/01 A3025 RMK A01 T00080007  RH  099%=      5-min Rain = 0
KPA1 090731Z 23006KT 01/01 A3025 RMK A01 T00080007  RH  099%=      5-min Rain = 0
KPA1 090732Z 23006KT 01/01 A3025 RMK A01 T00070005  RH  099%=      5-min Rain = 0
KPA1 090733Z 23005KT 01/01 A3025 RMK A01 T00080006  RH  099%=      5-min Rain = 0
KPA1 090734Z 23006KT 01/01 A3025 RMK A01 T00080007  RH  099%=      5-min Rain = 0
KPA1 090735Z 23005KT 01/01 A3025 RMK A01 T00080007  RH  099%=      5-min Rain = 0
KPA1 090736Z 23005KT 01/01 A3025 RMK A01 T00090008  RH  099%=      5-min Rain = 0
KPA1 090737Z 23006KT 01/01 A3025 RMK A01 T00090008  RH  099%=      5-min Rain = 0
KPA1 090738Z 24005KT 01/01 A3025 RMK A01 T00100010  RH  099%=      5-min Rain = 0
KPA1 090739Z 23005KT 01/01 A3025 RMK A01 T00100009  RH  099%=      5-min Rain = 0
KPA1 090740Z 23005KT 01/01 A3025 RMK A01 T00100009  RH  099%=      5-min Rain = 0
KPA1 090741Z 23005KT 01/01 A3025 RMK A01 T00090008  RH  099%=      5-min Rain = 0
KPA1 090742Z 23004KT 01/01 A3025 RMK A01 T00090008  RH  099%=      5-min Rain = 0
KPA1 090743Z 23004KT 01/01 A3025 RMK A01 T00090007  RH  099%=      5-min Rain = 0
KPA1 090744Z 23004KT 01/01 A3025 RMK A01 T00090008  RH  099%=      5-min Rain = 0
KPA1 090745Z 25004KT 01/01 A3025 RMK A01 T00110009  RH  099%=      5-min Rain = 0
KPA1 090746Z 25004KT 01/01 A3025 RMK A01 T00110010  RH  099%=      5-min Rain = 0
KPA1 090747Z 26004KT 01/01 A3025 RMK A01 T00120011  RH  099%=      5-min Rain = 0
KPA1 090748Z 26004KT 01/01 A3025 RMK A01 T00120011  RH  099%=      5-min Rain = 0
KPA1 090749Z 26004KT 01/01 A3025 RMK A01 T00120011  RH  099%=      5-min Rain = 0
KPA1 090750Z 26004KT 01/01 A3025 RMK A01 T00130011  RH  099%=      5-min Rain = 0
KPA1 090751Z 26003KT 01/01 A3025 RMK A01 T00120011  RH  099%=      5-min Rain = 0
KPA1 090752Z 27003KT 01/01 A3025 RMK A01 T00110009  RH  099%=      5-min Rain = 0
KPA1 090753Z 27003KT 01/01 A3025 RMK A01 T00110009  RH  099%=      5-min Rain = 0
KPA1 090754Z 27003KT 01/01 A3025 RMK A01 T00120010  RH  099%=      5-min Rain = 0
KPA1 090755Z 27004KT 01/01 A3025 RMK A01 T00140013  RH  099%=      5-min Rain = 0
KPA1 090756Z 27003KT 02/02 A3025 RMK A01 T00160016  RH  099%=      5-min Rain = 0
KPA1 090757Z 26004KT 02/02 A3025 RMK A01 T00190018  RH  100%=      5-min Rain = 0
KPA1 090758Z 26004KT 02/02 A3025 RMK A01 T00210020  RH  100%=      5-min Rain = 0
KPA1 090759Z 26003KT 02/02 A3025 RMK A01 T00220021  RH  100%=      5-min Rain = 0
KPA1 090800Z 26003KT 02/02 A3025 RMK A01 T00230022  RH  099%=      5-min Rain = 0
KPA1 090801Z 25003KT 02/02 A3025 RMK A01 T00240023  RH  099%=      5-min Rain = 0
KPA1 090802Z 26003KT 03/02 A3024 RMK A01 T00260024  RH  099%=      5-min Rain = 0
KPA1 090803Z 26003KT 03/02 A3024 RMK A01 T00270024  RH  099%=      5-min Rain = 0
KPA1 090804Z 26003KT 03/02 A3024 RMK A01 T00270023  RH  098%=      5-min Rain = 0
KPA1 090805Z 26003KT 03/02 A3024 RMK A01 T00270023  RH  097%=      5-min Rain = 0
KPA1 090806Z 26004KT 03/02 A3024 RMK A01 T00270023  RH  097%=      5-min Rain = 0
KPA1 090807Z 25004KT 03/02 A3024 RMK A01 T00280023  RH  097%=      5-min Rain = 0
KPA1 090808Z 25004KT 03/02 A3024 RMK A01 T00280022  RH  096%=      5-min Rain = 0
KPA1 090809Z 25004KT 03/02 A3024 RMK A01 T00270021  RH  095%=      5-min Rain = 0
KPA1 090810Z 26004KT 03/02 A3024 RMK A01 T00270020  RH  095%=      5-min Rain = 0
KPA1 090811Z 26004KT 03/02 A3024 RMK A01 T00280022  RH  096%=      5-min Rain = 0
KPA1 090812Z 27004KT 03/02 A3024 RMK A01 T00290022  RH  095%=      5-min Rain = 0
KPA1 090813Z 28004KT 03/02 A3024 RMK A01 T00290021  RH  095%=      5-min Rain = 0
KPA1 090814Z 28004KT 03/02 A3024 RMK A01 T00280020  RH  094%=      5-min Rain = 0
KPA1 090815Z 28004KT 03/02 A3024 RMK A01 T00290020  RH  094%=      5-min Rain = 0
KPA1 090816Z 28005KT 03/02 A3024 RMK A01 T00280020  RH  094%=      5-min Rain = 0
KPA1 090817Z 28005KT 03/02 A3024 RMK A01 T00280019  RH  094%=      5-min Rain = 0
KPA1 090818Z 28005KT 03/02 A3024 RMK A01 T00270017  RH  094%=      5-min Rain = 0
KPA1 090819Z 29004KT 03/02 A3024 RMK A01 T00260016  RH  093%=      5-min Rain = 0
KPA1 090820Z 28003KT 03/02 A3024 RMK A01 T00250015  RH  093%=      5-min Rain = 0
KPA1 090821Z 28003KT 02/02 A3024 RMK A01 T00240015  RH  093%=      5-min Rain = 0
KPA1 090822Z 28002KT 02/02 A3024 RMK A01 T00240015  RH  094%=      5-min Rain = 0
KPA1 090823Z 26002KT 02/02 A3024 RMK A01 T00240015  RH  094%=      5-min Rain = 0
KPA1 090824Z 26002KT 02/02 A3024 RMK A01 T00240015  RH  094%=      5-min Rain = 0
KPA1 090825Z 25002KT 02/02 A3024 RMK A01 T00230015  RH  094%=      5-min Rain = 0
KPA1 090826Z 24002KT 02/02 A3024 RMK A01 T00230015  RH  094%=      5-min Rain = 0
KPA1 090827Z 24002KT 02/02 A3024 RMK A01 T00240017  RH  095%=      5-min Rain = 0
KPA1 090828Z 23002KT 03/02 A3024 RMK A01 T00260019  RH  095%=      5-min Rain = 0
KPA1 090829Z 24003KT 03/02 A3024 RMK A01 T00260020  RH  095%=      5-min Rain = 0
KPA1 090830Z 25002KT 03/02 A3024 RMK A01 T00270020  RH  095%=      5-min Rain = 0
KPA1 090831Z 25002KT 03/02 A3024 RMK A01 T00280021  RH  095%=      5-min Rain = 0
KPA1 090832Z 25003KT 03/02 A3024 RMK A01 T00290022  RH  095%=      5-min Rain = 0
KPA1 090833Z 26002KT 03/02 A3024 RMK A01 T00290021  RH  095%=      5-min Rain = 0
KPA1 090834Z 26003KT 03/02 A3024 RMK A01 T00300021  RH  094%=      5-min Rain = 0
KPA1 090835Z 28002KT 03/02 A3024 RMK A01 T00300021  RH  094%=      5-min Rain = 0
KPA1 090836Z 28002KT 03/02 A3024 RMK A01 T00300021  RH  094%=      5-min Rain = 0
KPA1 090837Z 28002KT 03/02 A3024 RMK A01 T00310021  RH  094%=      5-min Rain = 0
KPA1 090838Z 27002KT 03/02 A3024 RMK A01 T00300021  RH  094%=      5-min Rain = 0
KPA1 090839Z 27003KT 03/02 A3024 RMK A01 T00300021  RH  093%=      5-min Rain = 0
KPA1 090840Z 27003KT 03/02 A3023 RMK A01 T00300021  RH  093%=      5-min Rain = 0
KPA1 090841Z 27003KT 03/02 A3023 RMK A01 T00300021  RH  093%=      5-min Rain = 0
KPA1 090842Z 27003KT 03/02 A3023 RMK A01 T00300020  RH  093%=      5-min Rain = 0
KPA1 090843Z 27003KT 03/02 A3023 RMK A01 T00300020  RH  093%=      5-min Rain = 0
KPA1 090844Z 27002KT 03/02 A3023 RMK A01 T00300020  RH  093%=      5-min Rain = 0
KPA1 090845Z 26002KT 03/02 A3023 RMK A01 T00300020  RH  093%=      5-min Rain = 0
KPA1 090846Z 27002KT 03/02 A3023 RMK A01 T00300021  RH  094%=      5-min Rain = 0
KPA1 090847Z 27002KT 03/02 A3023 RMK A01 T00300020  RH  093%=      5-min Rain = 0
KPA1 090848Z 26002KT 03/02 A3023 RMK A01 T00300020  RH  094%=      5-min Rain = 0
KPA1 090849Z 27002KT 03/02 A3023 RMK A01 T00300020  RH  094%=      5-min Rain = 0
KPA1 090850Z 27003KT 03/02 A3023 RMK A01 T00290020  RH  094%=      5-min Rain = 0
KPA1 090851Z 28003KT 03/02 A3023 RMK A01 T00290020  RH  093%=      5-min Rain = 0
KPA1 090852Z 28004KT 03/02 A3023 RMK A01 T00290020  RH  093%=      5-min Rain = 0
KPA1 090853Z 29004KT 03/02 A3023 RMK A01 T00290019  RH  093%=      5-min Rain = 0
KPA1 090854Z 29004KT 03/02 A3023 RMK A01 T00290019  RH  093%=      5-min Rain = 0
KPA1 090855Z 28004KT 03/02 A3023 RMK A01 T00280018  RH  093%=      5-min Rain = 0
KPA1 090856Z 29003KT 03/02 A3023 RMK A01 T00270017  RH  093%=      5-min Rain = 0
KPA1 090857Z 29004KT 03/02 A3023 RMK A01 T00260016  RH  093%=      5-min Rain = 0
KPA1 090858Z 28003KT 03/02 A3023 RMK A01 T00260016  RH  093%=      5-min Rain = 0
KPA1 090859Z 29004KT 03/02 A3023 RMK A01 T00250016  RH  093%=      5-min Rain = 0
KPA1 090900Z 29003KT 03/02 A3023 RMK A01 T00250015  RH  094%=      5-min Rain = 0
KPA1 090901Z 29004KT 03/02 A3023 RMK A01 T00250016  RH  094%=      5-min Rain = 0
KPA1 090902Z 29004KT 03/02 A3023 RMK A01 T00250017  RH  094%=      5-min Rain = 0
KPA1 090903Z 29005KT 03/02 A3023 RMK A01 T00260018  RH  095%=      5-min Rain = 0
KPA1 090904Z 29006KT 03/02 A3023 RMK A01 T00270020  RH  095%=      5-min Rain = 0
KPA1 090905Z 29005KT 03/02 A3023 RMK A01 T00290023  RH  096%=      5-min Rain = 0
KPA1 090906Z 29006KT 03/02 A3023 RMK A01 T00290023  RH  095%=      5-min Rain = 0
KPA1 090907Z 29006KT 03/02 A3023 RMK A01 T00300022  RH  095%=      5-min Rain = 0
KPA1 090908Z 29007KT 03/02 A3023 RMK A01 T00290022  RH  095%=      5-min Rain = 0
KPA1 090909Z 29008KT 03/02 A3023 RMK A01 T00300022  RH  095%=      5-min Rain = 0
KPA1 090910Z 29008KT 03/02 A3023 RMK A01 T00300022  RH  095%=      5-min Rain = 0
KPA1 090911Z 29008KT 03/02 A3023 RMK A01 T00310023  RH  095%=      5-min Rain = 0
KPA1 090912Z 29009KT 03/02 A3022 RMK A01 T00310023  RH  095%=      5-min Rain = 0
KPA1 090913Z 29009KT 03/02 A3022 RMK A01 T00320024  RH  095%=      5-min Rain = 0
KPA1 090914Z 29009KT 03/02 A3022 RMK A01 T00320024  RH  094%=      5-min Rain = 0
KPA1 090915Z 30009KT 03/02 A3022 RMK A01 T00330024  RH  094%=      5-min Rain = 0
KPA1 090916Z 30009KT 03/02 A3022 RMK A01 T00330024  RH  094%=      5-min Rain = 0
KPA1 090917Z 30009KT 03/03 A3022 RMK A01 T00330025  RH  094%=      5-min Rain = 0
KPA1 090918Z 30009KT 03/03 A3022 RMK A01 T00340025  RH  094%=      5-min Rain = 0
KPA1 090919Z 29009KT 03/03 A3022 RMK A01 T00340026  RH  094%=      5-min Rain = 0
KPA1 090920Z 29009KT 04/03 A3022 RMK A01 T00360027  RH  094%=      5-min Rain = 0
KPA1 090921Z 29010KT 04/03 A3022 RMK A01 T00370028  RH  094%=      5-min Rain = 0
KPA1 090922Z 29010KT 04/03 A3022 RMK A01 T00380029  RH  094%=      5-min Rain = 0
KPA1 090923Z 29010KT 04/03 A3022 RMK A01 T00390030  RH  094%=      5-min Rain = 0
KPA1 090924Z 29010KT 04/03 A3022 RMK A01 T00400030  RH  093%=      5-min Rain = 0
KPA1 090925Z 29009KT 04/03 A3022 RMK A01 T00390029  RH  093%=      5-min Rain = 0
KPA1 090926Z 29009KT 04/03 A3022 RMK A01 T00390028  RH  092%=      5-min Rain = 0
KPA1 090927Z 28008KT 04/03 A3022 RMK A01 T00400028  RH  092%=      5-min Rain = 0
KPA1 090928Z 29008KT 04/03 A3022 RMK A01 T00390027  RH  092%=      5-min Rain = 0
KPA1 090929Z 28008KT 04/03 A3022 RMK A01 T00390027  RH  092%=      5-min Rain = 0
KPA1 090930Z 29007KT 04/03 A3022 RMK A01 T00380027  RH  092%=      5-min Rain = 0
KPA1 090931Z 29007KT 04/03 A3022 RMK A01 T00380027  RH  092%=      5-min Rain = 0
KPA1 090932Z 29006KT 04/03 A3022 RMK A01 T00380026  RH  092%=      5-min Rain = 0
KPA1 090933Z 28006KT 04/03 A3022 RMK A01 T00370026  RH  092%=      5-min Rain = 0
KPA1 090934Z 28005KT 04/03 A3022 RMK A01 T00370026  RH  092%=      5-min Rain = 0
KPA1 090935Z 28005KT 04/03 A3022 RMK A01 T00360025  RH  092%=      5-min Rain = 0
KPA1 090936Z 28005KT 04/02 A3022 RMK A01 T00360024  RH  092%=      5-min Rain = 0
KPA1 090937Z 27005KT 04/02 A3022 RMK A01 T00350024  RH  093%=      5-min Rain = 0
KPA1 090938Z 27004KT 04/02 A3023 RMK A01 T00350024  RH  093%=      5-min Rain = 0
KPA1 090939Z 27004KT 03/02 A3023 RMK A01 T00340023  RH  093%=      5-min Rain = 0
KPA1 090940Z 27003KT 03/02 A3023 RMK A01 T00340024  RH  093%=      5-min Rain = 0
KPA1 090941Z 27002KT 03/02 A3023 RMK A01 T00340024  RH  093%=      5-min Rain = 0
KPA1 090942Z 28003KT 03/02 A3023 RMK A01 T00330023  RH  093%=      5-min Rain = 0
KPA1 090943Z 28005KT 03/02 A3023 RMK A01 T00330023  RH  094%=      5-min Rain = 0
KPA1 090944Z 28005KT 03/02 A3023 RMK A01 T00330023  RH  094%=      5-min Rain = 0
KPA1 090945Z 28005KT 03/03 A3022 RMK A01 T00330025  RH  094%=      5-min Rain = 0
KPA1 090946Z 28006KT 03/03 A3022 RMK A01 T00340025  RH  094%=      5-min Rain = 0
KPA1 090947Z 28006KT 04/03 A3022 RMK A01 T00350026  RH  094%=      5-min Rain = 0
KPA1 090948Z 28007KT 04/03 A3022 RMK A01 T00350026  RH  094%=      5-min Rain = 0
KPA1 090949Z 28007KT 04/03 A3022 RMK A01 T00350027  RH  094%=      5-min Rain = 0
KPA1 090950Z 28007KT 04/03 A3022 RMK A01 T00370029  RH  094%=      5-min Rain = 0
KPA1 090951Z 28008KT 04/03 A3022 RMK A01 T00380029  RH  094%=      5-min Rain = 0
KPA1 090952Z 28008KT 04/03 A3022 RMK A01 T00380028  RH  093%=      5-min Rain = 0
KPA1 090953Z 28008KT 04/03 A3022 RMK A01 T00380027  RH  093%=      5-min Rain = 0
KPA1 090954Z 28008KT 04/03 A3022 RMK A01 T00370026  RH  092%=      5-min Rain = 0
KPA1 090955Z 28008KT 04/03 A3022 RMK A01 T00370026  RH  093%=      5-min Rain = 0
KPA1 090956Z 28008KT 04/03 A3022 RMK A01 T00370026  RH  093%=      5-min Rain = 0
KPA1 090957Z 28007KT 04/03 A3022 RMK A01 T00370026  RH  093%=      5-min Rain = 0
KPA1 090958Z 28006KT 04/03 A3022 RMK A01 T00360025  RH  092%=      5-min Rain = 0
KPA1 090959Z 28007KT 04/02 A3022 RMK A01 T00360024  RH  092%=      5-min Rain = 0
KPA1 091000Z 28008KT 04/02 A3022 RMK A01 T00350024  RH  092%=      5-min Rain = 0
KPA1 091001Z 29008KT 03/02 A3022 RMK A01 T00340024  RH  093%=      5-min Rain = 0
KPA1 091002Z 29009KT 04/03 A3022 RMK A01 T00350025  RH  093%=      5-min Rain = 0
KPA1 091003Z 29009KT 04/03 A3022 RMK A01 T00360026  RH  093%=      5-min Rain = 0
KPA1 091004Z 28010KT 04/03 A3022 RMK A01 T00380027  RH  093%=      5-min Rain = 0
KPA1 091005Z 28010KT 04/03 A3022 RMK A01 T00380027  RH  093%=      5-min Rain = 0
KPA1 091006Z 29010KT 04/03 A3022 RMK A01 T00390028  RH  092%=      5-min Rain = 0
KPA1 091007Z 29010KT 04/03 A3022 RMK A01 T00400028  RH  092%=      5-min Rain = 0
KPA1 091008Z 29010KT 04/03 A3022 RMK A01 T00400029  RH  092%=      5-min Rain = 0
KPA1 091009Z 28009KT 04/03 A3022 RMK A01 T00410029  RH  092%=      5-min Rain = 0
KPA1 091010Z 28009KT 04/03 A3022 RMK A01 T00410028  RH  092%=      5-min Rain = 0
KPA1 091011Z 28008KT 04/03 A3022 RMK A01 T00410028  RH  091%=      5-min Rain = 0
KPA1 091012Z 28007KT 04/03 A3022 RMK A01 T00410028  RH  091%=      5-min Rain = 0
KPA1 091013Z 27006KT 04/03 A3022 RMK A01 T00400027  RH  091%=      5-min Rain = 0
KPA1 091014Z 28006KT 04/03 A3022 RMK A01 T00390026  RH  091%=      5-min Rain = 0
KPA1 091015Z 28006KT 04/03 A3022 RMK A01 T00380025  RH  091%=      5-min Rain = 0
KPA1 091016Z 28007KT 04/03 A3022 RMK A01 T00380025  RH  091%=      5-min Rain = 0
KPA1 091017Z 28007KT 04/03 A3022 RMK A01 T00380026  RH  092%=      5-min Rain = 0
KPA1 091018Z 28007KT 04/03 A3022 RMK A01 T00380026  RH  092%=      5-min Rain = 0
KPA1 091019Z 28006KT 04/03 A3021 RMK A01 T00380026  RH  092%=      5-min Rain = 0
KPA1 091020Z 29006KT 04/03 A3021 RMK A01 T00380026  RH  092%=      5-min Rain = 0
KPA1 091021Z 28006KT 04/03 A3021 RMK A01 T00380026  RH  092%=      5-min Rain = 0
KPA1 091022Z 28005KT 04/03 A3021 RMK A01 T00370025  RH  092%=      5-min Rain = 0
KPA1 091023Z 29005KT 04/03 A3021 RMK A01 T00370025  RH  092%=      5-min Rain = 0
KPA1 091024Z 29006KT 04/02 A3021 RMK A01 T00360024  RH  092%=      5-min Rain = 0
KPA1 091025Z 29007KT 04/02 A3021 RMK A01 T00360024  RH  092%=      5-min Rain = 0
KPA1 091026Z 29007KT 04/03 A3021 RMK A01 T00360025  RH  093%=      5-min Rain = 0
KPA1 091027Z 29007KT 04/03 A3021 RMK A01 T00360025  RH  093%=      5-min Rain = 0
KPA1 091028Z 29008KT 04/03 A3021 RMK A01 T00360026  RH  093%=      5-min Rain = 0
KPA1 091029Z 29007KT 04/03 A3021 RMK A01 T00370026  RH  093%=      5-min Rain = 0
KPA1 091030Z 29007KT 04/03 A3021 RMK A01 T00370027  RH  093%=      5-min Rain = 0
KPA1 091031Z 29007KT 04/03 A3021 RMK A01 T00370026  RH  092%=      5-min Rain = 0
KPA1 091032Z 29006KT 04/03 A3021 RMK A01 T00370025  RH  092%=      5-min Rain = 0
KPA1 091033Z 29006KT 04/03 A3021 RMK A01 T00360025  RH  092%=      5-min Rain = 0
KPA1 091034Z 29007KT 04/02 A3021 RMK A01 T00350024  RH  093%=      5-min Rain = 0
KPA1 091035Z 29006KT 04/02 A3021 RMK A01 T00350024  RH  093%=      5-min Rain = 0
KPA1 091036Z 29006KT 03/02 A3021 RMK A01 T00340023  RH  093%=      5-min Rain = 0
KPA1 091037Z 29007KT 03/02 A3021 RMK A01 T00330023  RH  093%=      5-min Rain = 0
KPA1 091038Z 29007KT 03/02 A3021 RMK A01 T00330022  RH  093%=      5-min Rain = 0
KPA1 091039Z 29007KT 03/02 A3021 RMK A01 T00330023  RH  093%=      5-min Rain = 0
KPA1 091040Z 29007KT 03/02 A3021 RMK A01 T00330023  RH  094%=      5-min Rain = 0
KPA1 091041Z 29006KT 03/02 A3021 RMK A01 T00320023  RH  094%=      5-min Rain = 0
KPA1 091042Z 29006KT 03/02 A3021 RMK A01 T00320023  RH  094%=      5-min Rain = 0
KPA1 091043Z 29005KT 03/02 A3022 RMK A01 T00320023  RH  094%=      5-min Rain = 0
KPA1 091044Z 29005KT 03/02 A3022 RMK A01 T00310022  RH  094%=      5-min Rain = 0
KPA1 091045Z 29005KT 03/02 A3022 RMK A01 T00300021  RH  094%=      5-min Rain = 0
KPA1 091046Z 29006KT 03/02 A3022 RMK A01 T00300022  RH  094%=      5-min Rain = 0
KPA1 091047Z 29006KT 03/02 A3022 RMK A01 T00310023  RH  095%=      5-min Rain = 0
KPA1 091048Z 29006KT 03/02 A3022 RMK A01 T00310023  RH  094%=      5-min Rain = 0
KPA1 091049Z 29008KT 03/02 A3022 RMK A01 T00310022  RH  094%=      5-min Rain = 0
KPA1 091050Z 29008KT 03/02 A3022 RMK A01 T00300022  RH  094%=      5-min Rain = 0
KPA1 091051Z 29009KT 03/02 A3022 RMK A01 T00300021  RH  094%=      5-min Rain = 0
KPA1 091052Z 29009KT 03/02 A3022 RMK A01 T00300022  RH  094%=      5-min Rain = 0
KPA1 091053Z 29008KT 03/02 A3022 RMK A01 T00300022  RH  094%=      5-min Rain = 0
KPA1 091054Z 29009KT 03/02 A3022 RMK A01 T00300022  RH  094%=      5-min Rain = 0
KPA1 091055Z 29009KT 03/02 A3021 RMK A01 T00300022  RH  094%=      5-min Rain = 0
KPA1 091056Z 29008KT 03/02 A3021 RMK A01 T00310022  RH  094%=      5-min Rain = 0
KPA1 091057Z 29009KT 03/02 A3021 RMK A01 T00310023  RH  094%=      5-min Rain = 0
KPA1 091058Z 29009KT 03/02 A3021 RMK A01 T00310022  RH  094%=      5-min Rain = 0
KPA1 091059Z 30009KT 03/02 A3021 RMK A01 T00310022  RH  094%=      5-min Rain = 0
KPA1 091100Z 30009KT 03/02 A3021 RMK A01 T00310022  RH  094%=      5-min Rain = 0
KPA1 091101Z 30008KT 03/02 A3021 RMK A01 T00310021  RH  094%=      5-min Rain = 0
KPA1 091102Z 29009KT 03/02 A3021 RMK A01 T00300021  RH  094%=      5-min Rain = 0
KPA1 091103Z 29008KT 03/02 A3021 RMK A01 T00300022  RH  094%=      5-min Rain = 0
KPA1 091104Z 30009KT 03/02 A3021 RMK A01 T00310022  RH  094%=      5-min Rain = 0
KPA1 091105Z 29009KT 03/02 A3021 RMK A01 T00320024  RH  095%=      5-min Rain = 0
KPA1 091106Z 30009KT 03/02 A3021 RMK A01 T00320024  RH  094%=      5-min Rain = 0
KPA1 091107Z 29009KT 03/02 A3021 RMK A01 T00330024  RH  094%=      5-min Rain = 0
KPA1 091108Z 29009KT 03/02 A3021 RMK A01 T00320023  RH  094%=      5-min Rain = 0
KPA1 091109Z 30009KT 03/02 A3021 RMK A01 T00320023  RH  094%=      5-min Rain = 0
KPA1 091110Z 30009KT 03/02 A3021 RMK A01 T00320023  RH  094%=      5-min Rain = 0
KPA1 091111Z 30009KT 03/02 A3021 RMK A01 T00320023  RH  094%=      5-min Rain = 0
KPA1 091112Z 30009KT 03/02 A3021 RMK A01 T00320023  RH  094%=      5-min Rain = 0
KPA1 091113Z 29010KT 03/02 A3021 RMK A01 T00320023  RH  094%=      5-min Rain = 0
KPA1 091114Z 29011KT 03/02 A3021 RMK A01 T00330024  RH  094%=      5-min Rain = 0
KPA1 091115Z 29010KT 03/03 A3021 RMK A01 T00340025  RH  094%=      5-min Rain = 0
KPA1 091116Z 29009KT 04/03 A3021 RMK A01 T00350026  RH  094%=      5-min Rain = 0
KPA1 091117Z 29010KT 04/03 A3021 RMK A01 T00350025  RH  093%=      5-min Rain = 0
KPA1 091118Z 30009KT 03/02 A3021 RMK A01 T00340024  RH  093%=      5-min Rain = 0
KPA1 091119Z 30009KT 03/02 A3021 RMK A01 T00340024  RH  093%=      5-min Rain = 0
KPA1 091120Z 30009KT 03/02 A3021 RMK A01 T00330023  RH  093%=      5-min Rain = 0
KPA1 091121Z 30009KT 03/02 A3021 RMK A01 T00320022  RH  093%=      5-min Rain = 0
KPA1 091122Z 30009KT 03/02 A3021 RMK A01 T00320022  RH  093%=      5-min Rain = 0
KPA1 091123Z 30010KT 03/02 A3021 RMK A01 T00320022  RH  093%=      5-min Rain = 0
KPA1 091124Z 30009KT 03/02 A3021 RMK A01 T00320023  RH  094%=      5-min Rain = 0
KPA1 091125Z 30010KT 03/02 A3021 RMK A01 T00330024  RH  094%=      5-min Rain = 0
KPA1 091126Z 30010KT 03/03 A3021 RMK A01 T00340025  RH  094%=      5-min Rain = 0
KPA1 091127Z 29009KT 03/02 A3021 RMK A01 T00330024  RH  093%=      5-min Rain = 0
KPA1 091128Z 30009KT 03/02 A3021 RMK A01 T00330023  RH  093%=      5-min Rain = 0
KPA1 091129Z 29009KT 03/02 A3021 RMK A01 T00320022  RH  093%=      5-min Rain = 0
KPA1 091130Z 29008KT 03/02 A3021 RMK A01 T00320021  RH  093%=      5-min Rain = 0
KPA1 091131Z 29008KT 03/02 A3021 RMK A01 T00310021  RH  093%=      5-min Rain = 0
KPA1 091132Z 30007KT 03/02 A3021 RMK A01 T00300020  RH  093%=      5-min Rain = 0
KPA1 091133Z 29007KT 03/02 A3021 RMK A01 T00300020  RH  093%=      5-min Rain = 0
KPA1 091134Z 29007KT 03/02 A3021 RMK A01 T00290020  RH  094%=      5-min Rain = 0
KPA1 091135Z 29007KT 03/02 A3021 RMK A01 T00290020  RH  094%=      5-min Rain = 0
KPA1 091136Z 29007KT 03/02 A3021 RMK A01 T00290021  RH  094%=      5-min Rain = 0
KPA1 091137Z 29006KT 03/02 A3021 RMK A01 T00290021  RH  094%=      5-min Rain = 0
KPA1 091138Z 29007KT 03/02 A3021 RMK A01 T00290021  RH  094%=      5-min Rain = 0
KPA1 091139Z 29006KT 03/02 A3022 RMK A01 T00300022  RH  095%=      5-min Rain = 0
KPA1 091140Z 29006KT 03/02 A3022 RMK A01 T00300022  RH  095%=      5-min Rain = 0
KPA1 091141Z 29006KT 03/02 A3022 RMK A01 T00300022  RH  094%=      5-min Rain = 0
KPA1 091142Z 29006KT 03/02 A3022 RMK A01 T00300022  RH  094%=      5-min Rain = 0
KPA1 091143Z 29006KT 03/02 A3022 RMK A01 T00300022  RH  094%=      5-min Rain = 0
KPA1 091144Z 28007KT 03/02 A3022 RMK A01 T00300022  RH  095%=      5-min Rain = 0
KPA1 091145Z 28006KT 03/02 A3022 RMK A01 T00300022  RH  094%=      5-min Rain = 0
KPA1 091146Z 28005KT 03/02 A3022 RMK A01 T00310022  RH  094%=      5-min Rain = 0
KPA1 091147Z 28006KT 03/02 A3022 RMK A01 T00300022  RH  094%=      5-min Rain = 0
KPA1 091148Z 28005KT 03/02 A3022 RMK A01 T00300021  RH  094%=      5-min Rain = 0
KPA1 091149Z 28005KT 03/02 A3022 RMK A01 T00290021  RH  094%=      5-min Rain = 0
KPA1 091150Z 28005KT 03/02 A3022 RMK A01 T00290020  RH  094%=      5-min Rain = 0
KPA1 091151Z 28005KT 03/02 A3022 RMK A01 T00290020  RH  094%=      5-min Rain = 0
KPA1 091152Z 28004KT 03/02 A3022 RMK A01 T00290020  RH  094%=      5-min Rain = 0
KPA1 091153Z 28004KT 03/02 A3022 RMK A01 T00290021  RH  095%=      5-min Rain = 0
KPA1 091154Z 28003KT 03/02 A3022 RMK A01 T00280021  RH  095%=      5-min Rain = 0
KPA1 091155Z 28004KT 03/02 A3022 RMK A01 T00280021  RH  095%=      5-min Rain = 0
KPA1 091156Z 28004KT 03/02 A3022 RMK A01 T00280020  RH  095%=      5-min Rain = 0
KPA1 091157Z 27004KT 03/02 A3022 RMK A01 T00280020  RH  095%=      5-min Rain = 0
KPA1 091158Z 26003KT 03/02 A3022 RMK A01 T00280020  RH  095%=      5-min Rain = 0
KPA1 091159Z 26003KT 03/02 A3022 RMK A01 T00270020  RH  095%=      5-min Rain = 0
KPA1 091200Z 25002KT 03/02 A3022 RMK A01 T00270019  RH  095%=      5-min Rain = 0
KPA1 091201Z 25002KT 03/02 A3022 RMK A01 T00270019  RH  095%=      5-min Rain = 0
KPA1 091202Z 24002KT 03/02 A3022 RMK A01 T00260019  RH  095%=      5-min Rain = 0
KPA1 091203Z 24002KT 03/02 A3022 RMK A01 T00260020  RH  095%=      5-min Rain = 0
KPA1 091204Z 25002KT 03/02 A3022 RMK A01 T00270020  RH  095%=      5-min Rain = 0
KPA1 091205Z 25002KT 03/02 A3022 RMK A01 T00270020  RH  096%=      5-min Rain = 0
KPA1 091206Z 26002KT 03/02 A3022 RMK A01 T00260020  RH  095%=      5-min Rain = 0
KPA1 091207Z 26002KT 03/02 A3022 RMK A01 T00260020  RH  096%=      5-min Rain = 0
KPA1 091208Z 26003KT 03/02 A3022 RMK A01 T00260020  RH  096%=      5-min Rain = 0
KPA1 091209Z 26002KT 03/02 A3022 RMK A01 T00270021  RH  096%=      5-min Rain = 0
KPA1 091210Z 26002KT 03/02 A3022 RMK A01 T00270021  RH  096%=      5-min Rain = 0
KPA1 091211Z 26003KT 03/02 A3022 RMK A01 T00270020  RH  096%=      5-min Rain = 0
KPA1 091212Z 26003KT 03/02 A3022 RMK A01 T00270020  RH  096%=      5-min Rain = 0
KPA1 091213Z 26002KT 03/02 A3022 RMK A01 T00270020  RH  096%=      5-min Rain = 0
KPA1 091214Z 25002KT 03/02 A3022 RMK A01 T00270020  RH  095%=      5-min Rain = 0
KPA1 091215Z 25003KT 03/02 A3022 RMK A01 T00260020  RH  095%=      5-min Rain = 0
KPA1 091216Z 25003KT 03/02 A3022 RMK A01 T00260019  RH  095%=      5-min Rain = 0
KPA1 091217Z 26003KT 03/02 A3022 RMK A01 T00260019  RH  095%=      5-min Rain = 0
KPA1 091218Z 26003KT 03/02 A3022 RMK A01 T00250018  RH  095%=      5-min Rain = 0
KPA1 091219Z 26003KT 03/02 A3022 RMK A01 T00250018  RH  095%=      5-min Rain = 0
KPA1 091220Z 27004KT 03/02 A3022 RMK A01 T00250019  RH  096%=      5-min Rain = 0
KPA1 091221Z 27004KT 03/02 A3022 RMK A01 T00250019  RH  096%=      5-min Rain = 0
KPA1 091222Z 27004KT 03/02 A3022 RMK A01 T00250019  RH  095%=      5-min Rain = 0
KPA1 091223Z 28004KT 03/02 A3022 RMK A01 T00250019  RH  095%=      5-min Rain = 0
KPA1 091224Z 28004KT 03/02 A3022 RMK A01 T00250018  RH  095%=      5-min Rain = 0
KPA1 091225Z 28004KT 03/02 A3022 RMK A01 T00250018  RH  095%=      5-min Rain = 0
KPA1 091226Z 28004KT 03/02 A3022 RMK A01 T00250018  RH  095%=      5-min Rain = 0
KPA1 091227Z 27004KT 03/02 A3022 RMK A01 T00250019  RH  096%=      5-min Rain = 0
KPA1 091228Z 27003KT 03/02 A3022 RMK A01 T00250019  RH  096%=      5-min Rain = 0
KPA1 091229Z 27002KT 03/02 A3022 RMK A01 T00260020  RH  096%=      5-min Rain = 0
KPA1 091230Z 26002KT 03/02 A3022 RMK A01 T00260019  RH  096%=      5-min Rain = 0
KPA1 091231Z 25002KT 03/02 A3022 RMK A01 T00260019  RH  096%=      5-min Rain = 0
KPA1 091232Z 26002KT 03/02 A3022 RMK A01 T00260020  RH  096%=      5-min Rain = 0
KPA1 091233Z 26003KT 03/02 A3022 RMK A01 T00260021  RH  096%=      5-min Rain = 0
KPA1 091234Z 27002KT 03/02 A3022 RMK A01 T00260020  RH  096%=      5-min Rain = 0
KPA1 091235Z 28002KT 03/02 A3022 RMK A01 T00260020  RH  096%=      5-min Rain = 0
KPA1 091236Z 27003KT 03/02 A3022 RMK A01 T00260020  RH  096%=      5-min Rain = 0
KPA1 091237Z 27002KT 03/02 A3022 RMK A01 T00260019  RH  096%=      5-min Rain = 0
KPA1 091238Z 27002KT 03/02 A3022 RMK A01 T00260020  RH  096%=      5-min Rain = 0
KPA1 091239Z 28003KT 03/02 A3022 RMK A01 T00260020  RH  096%=      5-min Rain = 0
KPA1 091240Z 28002KT 03/02 A3022 RMK A01 T00260019  RH  096%=      5-min Rain = 0
KPA1 091241Z 28002KT 03/02 A3022 RMK A01 T00250018  RH  095%=      5-min Rain = 0
KPA1 091242Z 28002KT 03/02 A3022 RMK A01 T00250018  RH  095%=      5-min Rain = 0
KPA1 091243Z 27002KT 03/02 A3022 RMK A01 T00250019  RH  096%=      5-min Rain = 0
KPA1 091244Z 28003KT 03/02 A3022 RMK A01 T00250019  RH  096%=      5-min Rain = 0
KPA1 091245Z 28002KT 03/02 A3022 RMK A01 T00260020  RH  096%=      5-min Rain = 0
KPA1 091246Z 28002KT 03/02 A3022 RMK A01 T00260020  RH  096%=      5-min Rain = 0
KPA1 091247Z 27001KT 03/02 A3022 RMK A01 T00260020  RH  096%=      5-min Rain = 0
KPA1 091248Z 28001KT 03/02 A3022 RMK A01 T00250020  RH  096%=      5-min Rain = 0
KPA1 091249Z 27002KT 03/02 A3022 RMK A01 T00250020  RH  096%=      5-min Rain = 0
KPA1 091250Z 27001KT 03/02 A3022 RMK A01 T00250020  RH  096%=      5-min Rain = 0
KPA1 091251Z 28001KT 03/02 A3022 RMK A01 T00260021  RH  096%=      5-min Rain = 0
KPA1 091252Z 28002KT 03/02 A3022 RMK A01 T00260021  RH  096%=      5-min Rain = 0
KPA1 091253Z 27001KT 03/02 A3022 RMK A01 T00260021  RH  096%=      5-min Rain = 0
KPA1 091254Z 26001KT 03/02 A3022 RMK A01 T00260021  RH  097%=      5-min Rain = 0
KPA1 091255Z 27001KT 03/02 A3022 RMK A01 T00260021  RH  097%=      5-min Rain = 0
KPA1 091256Z 30001KT 03/02 A3022 RMK A01 T00260021  RH  097%=      5-min Rain = 0
KPA1 091257Z 29002KT 03/02 A3022 RMK A01 T00260021  RH  096%=      5-min Rain = 0
KPA1 091258Z 29003KT 03/02 A3022 RMK A01 T00250020  RH  096%=      5-min Rain = 0
KPA1 091259Z 29003KT 03/02 A3022 RMK A01 T00260021  RH  097%=      5-min Rain = 0
KPA1 091300Z 29003KT 03/02 A3022 RMK A01 T00260021  RH  097%=      5-min Rain = 0
KPA1 091301Z 29003KT 03/02 A3022 RMK A01 T00260021  RH  096%=      5-min Rain = 0
KPA1 091302Z 29004KT 03/02 A3022 RMK A01 T00260020  RH  096%=      5-min Rain = 0
KPA1 091303Z 29004KT 03/02 A3022 RMK A01 T00250018  RH  096%=      5-min Rain = 0
KPA1 091304Z 29004KT 02/02 A3022 RMK A01 T00240017  RH  095%=      5-min Rain = 0
KPA1 091305Z 30004KT 02/02 A3022 RMK A01 T00230016  RH  095%=      5-min Rain = 0
KPA1 091306Z 30005KT 02/02 A3023 RMK A01 T00230016  RH  095%=      5-min Rain = 0
KPA1 091307Z 30005KT 02/02 A3023 RMK A01 T00220015  RH  095%=      5-min Rain = 0
KPA1 091308Z 30005KT 02/02 A3023 RMK A01 T00220015  RH  095%=      5-min Rain = 0
KPA1 091309Z 30005KT 02/01 A3023 RMK A01 T00210014  RH  095%=      5-min Rain = 0
KPA1 091310Z 30006KT 02/01 A3023 RMK A01 T00200014  RH  095%=      5-min Rain = 0
KPA1 091311Z 29005KT 02/01 A3023 RMK A01 T00200014  RH  095%=      5-min Rain = 0
KPA1 091312Z 29005KT 02/01 A3023 RMK A01 T00200013  RH  095%=      5-min Rain = 0
KPA1 091313Z 27004KT 02/01 A3023 RMK A01 T00190012  RH  095%=      5-min Rain = 0
KPA1 091314Z 27004KT 02/01 A3022 RMK A01 T00190013  RH  096%=      5-min Rain = 0
KPA1 091315Z 25003KT 02/01 A3022 RMK A01 T00190012  RH  096%=      5-min Rain = 0
KPA1 091316Z 26002KT 02/01 A3022 RMK A01 T00180012  RH  096%=      5-min Rain = 0
KPA1 091317Z 25002KT 02/01 A3022 RMK A01 T00190013  RH  096%=      5-min Rain = 0
KPA1 091318Z 26002KT 02/02 A3022 RMK A01 T00200015  RH  097%=      5-min Rain = 0
KPA1 091319Z 26002KT 02/02 A3022 RMK A01 T00200015  RH  097%=      5-min Rain = 0
KPA1 091320Z 26003KT 02/02 A3022 RMK A01 T00210016  RH  097%=      5-min Rain = 0
KPA1 091321Z 27003KT 02/02 A3023 RMK A01 T00210016  RH  096%=      5-min Rain = 0
KPA1 091322Z 26002KT 02/02 A3023 RMK A01 T00210016  RH  096%=      5-min Rain = 0
KPA1 091323Z 27002KT 02/02 A3023 RMK A01 T00220016  RH  096%=      5-min Rain = 0
KPA1 091324Z 28002KT 02/02 A3023 RMK A01 T00220016  RH  096%=      5-min Rain = 0
KPA1 091325Z 28003KT 02/02 A3023 RMK A01 T00220016  RH  096%=      5-min Rain = 0
KPA1 091326Z 28002KT 02/02 A3023 RMK A01 T00220015  RH  095%=      5-min Rain = 0
KPA1 091327Z 28003KT 02/02 A3023 RMK A01 T00220016  RH  095%=      5-min Rain = 0
KPA1 091328Z 26002KT 02/02 A3023 RMK A01 T00230016  RH  095%=      5-min Rain = 0
KPA1 091329Z 26002KT 02/02 A3023 RMK A01 T00220015  RH  095%=      5-min Rain = 0
KPA1 091330Z 25002KT 02/02 A3023 RMK A01 T00230015  RH  095%=      5-min Rain = 0
KPA1 091331Z 25002KT 02/02 A3022 RMK A01 T00230015  RH  095%=      5-min Rain = 0
KPA1 091332Z 24002KT 02/02 A3022 RMK A01 T00230015  RH  094%=      5-min Rain = 0
KPA1 091333Z 25002KT 02/02 A3022 RMK A01 T00230015  RH  094%=      5-min Rain = 0
KPA1 091334Z 24002KT 02/02 A3022 RMK A01 T00240015  RH  094%=      5-min Rain = 0
KPA1 091335Z 24002KT 02/02 A3022 RMK A01 T00230015  RH  094%=      5-min Rain = 0
KPA1 091336Z 24002KT 02/02 A3022 RMK A01 T00240015  RH  094%=      5-min Rain = 0
KPA1 091337Z 25002KT 02/02 A3023 RMK A01 T00240015  RH  094%=      5-min Rain = 0
KPA1 091338Z 25002KT 03/02 A3023 RMK A01 T00250016  RH  094%=      5-min Rain = 0
KPA1 091339Z 26002KT 03/02 A3023 RMK A01 T00260017  RH  094%=      5-min Rain = 0
KPA1 091340Z 27002KT 03/02 A3023 RMK A01 T00260017  RH  094%=      5-min Rain = 0
KPA1 091341Z 27003KT 03/02 A3023 RMK A01 T00270018  RH  094%=      5-min Rain = 0
KPA1 091342Z 27002KT 03/02 A3023 RMK A01 T00280019  RH  094%=      5-min Rain = 0
KPA1 091343Z 27002KT 03/02 A3023 RMK A01 T00290019  RH  093%=      5-min Rain = 0
KPA1 091344Z 28002KT 03/02 A3023 RMK A01 T00290019  RH  093%=      5-min Rain = 0
KPA1 091345Z 28002KT 03/02 A3023 RMK A01 T00300019  RH  093%=      5-min Rain = 0
KPA1 091346Z 28002KT 03/02 A3023 RMK A01 T00300018  RH  092%=      5-min Rain = 0
KPA1 091347Z 28003KT 03/02 A3023 RMK A01 T00290018  RH  092%=      5-min Rain = 0
KPA1 091348Z 28003KT 03/02 A3023 RMK A01 T00300018  RH  092%=      5-min Rain = 0
KPA1 091349Z 28003KT 03/02 A3023 RMK A01 T00300018  RH  092%=      5-min Rain = 0
KPA1 091350Z 28002KT 03/02 A3023 RMK A01 T00300017  RH  091%=      5-min Rain = 0
KPA1 091351Z 27003KT 03/02 A3023 RMK A01 T00300017  RH  091%=      5-min Rain = 0
KPA1 091352Z 27003KT 03/02 A3023 RMK A01 T00300017  RH  091%=      5-min Rain = 0
KPA1 091353Z 27002KT 03/02 A3023 RMK A01 T00300017  RH  091%=      5-min Rain = 0
KPA1 091354Z 26003KT 03/02 A3023 RMK A01 T00300017  RH  091%=      5-min Rain = 0
KPA1 091355Z 26003KT 03/02 A3023 RMK A01 T00300018  RH  091%=      5-min Rain = 0
KPA1 091356Z 26003KT 03/02 A3023 RMK A01 T00310018  RH  092%=      5-min Rain = 0
KPA1 091357Z 26003KT 03/02 A3023 RMK A01 T00310019  RH  092%=      5-min Rain = 0
KPA1 091358Z 27003KT 03/02 A3023 RMK A01 T00310019  RH  092%=      5-min Rain = 0
KPA1 091359Z 26003KT 03/02 A3023 RMK A01 T00320020  RH  092%=      5-min Rain = 0
KPA1 091400Z 26003KT 03/02 A3023 RMK A01 T00330020  RH  092%=      5-min Rain = 0
KPA1 091401Z 27003KT 03/02 A3023 RMK A01 T00330021  RH  092%=      5-min Rain = 0
KPA1 091402Z 27003KT 03/02 A3023 RMK A01 T00340022  RH  092%=      5-min Rain = 0
KPA1 091403Z 27003KT 04/02 A3023 RMK A01 T00350023  RH  092%=      5-min Rain = 0
KPA1 091404Z 27003KT 04/02 A3023 RMK A01 T00360024  RH  092%=      5-min Rain = 0
KPA1 091405Z 27003KT 04/03 A3023 RMK A01 T00370025  RH  092%=      5-min Rain = 0
KPA1 091406Z 26003KT 04/03 A3023 RMK A01 T00380026  RH  092%=      5-min Rain = 0
KPA1 091407Z 27003KT 04/03 A3023 RMK A01 T00390027  RH  092%=      5-min Rain = 0
KPA1 091408Z 26003KT 04/03 A3023 RMK A01 T00400027  RH  091%=      5-min Rain = 0
KPA1 091409Z 27003KT 04/03 A3023 RMK A01 T00410028  RH  091%=      5-min Rain = 0
KPA1 091410Z 27003KT 04/03 A3023 RMK A01 T00420028  RH  091%=      5-min Rain = 0
KPA1 091411Z 27004KT 04/03 A3023 RMK A01 T00420028  RH  090%=      5-min Rain = 0
KPA1 091412Z 27003KT 04/03 A3023 RMK A01 T00430029  RH  090%=      5-min Rain = 0
KPA1 091413Z 27003KT 04/03 A3023 RMK A01 T00440030  RH  091%=      5-min Rain = 0
KPA1 091414Z 27004KT 04/03 A3023 RMK A01 T00440031  RH  091%=      5-min Rain = 0
KPA1 091415Z 27004KT 05/03 A3023 RMK A01 T00450032  RH  091%=      5-min Rain = 0
KPA1 091416Z 26004KT 05/03 A3023 RMK A01 T00460032  RH  091%=      5-min Rain = 0
KPA1 091417Z 26004KT 05/03 A3023 RMK A01 T00470033  RH  091%=      5-min Rain = 0
KPA1 091418Z 27004KT 05/03 A3023 RMK A01 T00480033  RH  090%=      5-min Rain = 0
KPA1 091419Z 26004KT 05/03 A3023 RMK A01 T00490034  RH  090%=      5-min Rain = 0
KPA1 091420Z 26004KT 05/04 A3023 RMK A01 T00500035  RH  090%=      5-min Rain = 0
KPA1 091421Z 26004KT 05/04 A3023 RMK A01 T00510036  RH  090%=      5-min Rain = 0
KPA1 091422Z 25003KT 05/04 A3023 RMK A01 T00520036  RH  090%=      5-min Rain = 0
KPA1 091423Z 26004KT 05/04 A3023 RMK A01 T00530037  RH  089%=      5-min Rain = 0
KPA1 091424Z 26003KT 05/04 A3023 RMK A01 T00540037  RH  089%=      5-min Rain = 0
KPA1 091425Z 26004KT 06/04 A3023 RMK A01 T00550039  RH  089%=      5-min Rain = 0
KPA1 091426Z 27004KT 06/04 A3023 RMK A01 T00560039  RH  089%=      5-min Rain = 0
KPA1 091427Z 26004KT 06/04 A3023 RMK A01 T00560038  RH  088%=      5-min Rain = 0
KPA1 091428Z 26003KT 06/04 A3024 RMK A01 T00570039  RH  088%=      5-min Rain = 0
KPA1 091429Z 25003KT 06/04 A3024 RMK A01 T00580041  RH  089%=      5-min Rain = 0
KPA1 091430Z 26003KT 06/04 A3024 RMK A01 T00590044  RH  090%=      5-min Rain = 0
KPA1 091431Z 26005KT 06/04 A3024 RMK A01 T00600044  RH  090%=      5-min Rain = 0
KPA1 091432Z 27005KT 06/04 A3024 RMK A01 T00610043  RH  088%=      5-min Rain = 0
KPA1 091433Z 26004KT 06/04 A3024 RMK A01 T00610041  RH  087%=      5-min Rain = 0
KPA1 091434Z 26004KT 06/04 A3024 RMK A01 T00610042  RH  087%=      5-min Rain = 0
KPA1 091435Z 26004KT 06/04 A3024 RMK A01 T00620043  RH  087%=      5-min Rain = 0
KPA1 091436Z 25004KT 06/04 A3024 RMK A01 T00630042  RH  087%=      5-min Rain = 0
KPA1 091437Z 26004KT 06/05 A3024 RMK A01 T00640045  RH  088%=      5-min Rain = 0
KPA1 091438Z 27005KT 07/05 A3024 RMK A01 T00650045  RH  087%=      5-min Rain = 0
KPA1 091439Z 27005KT 07/05 A3024 RMK A01 T00660045  RH  087%=      5-min Rain = 0
KPA1 091440Z 27005KT 07/04 A3024 RMK A01 T00660044  RH  086%=      5-min Rain = 0
KPA1 091441Z 26004KT 07/04 A3024 RMK A01 T00670044  RH  086%=      5-min Rain = 0
KPA1 091442Z 27005KT 07/05 A3024 RMK A01 T00680046  RH  086%=      5-min Rain = 0
KPA1 091443Z 27004KT 07/05 A3024 RMK A01 T00690047  RH  086%=      5-min Rain = 0
KPA1 091444Z 26004KT 07/05 A3024 RMK A01 T00700047  RH  086%=      5-min Rain = 0
KPA1 091445Z 27005KT 07/05 A3024 RMK A01 T00710049  RH  086%=      5-min Rain = 0
KPA1 091446Z 26005KT 07/05 A3024 RMK A01 T00710049  RH  086%=      5-min Rain = 0
KPA1 091447Z 26006KT 07/05 A3024 RMK A01 T00730050  RH  086%=      5-min Rain = 0
KPA1 091448Z 27005KT 07/05 A3024 RMK A01 T00730048  RH  084%=      5-min Rain = 0
KPA1 091449Z 27004KT 07/05 A3024 RMK A01 T00740050  RH  085%=      5-min Rain = 0
KPA1 091450Z 26005KT 08/05 A3024 RMK A01 T00750050  RH  084%=      5-min Rain = 0
KPA1 091451Z 27006KT 08/05 A3024 RMK A01 T00760049  RH  083%=      5-min Rain = 0
KPA1 091452Z 27005KT 08/05 A3024 RMK A01 T00760050  RH  083%=      5-min Rain = 0
KPA1 091453Z 26005KT 08/05 A3024 RMK A01 T00770051  RH  083%=      5-min Rain = 0
KPA1 091454Z 26005KT 08/05 A3024 RMK A01 T00780053  RH  084%=      5-min Rain = 0
KPA1 091455Z 26005KT 08/05 A3024 RMK A01 T00790052  RH  083%=      5-min Rain = 0
KPA1 091456Z 26005KT 08/05 A3024 RMK A01 T00800053  RH  083%=      5-min Rain = 0
KPA1 091457Z 26006KT 08/05 A3024 RMK A01 T00810052  RH  082%=      5-min Rain = 0
KPA1 091458Z 27007KT 08/05 A3024 RMK A01 T00810051  RH  082%=      5-min Rain = 0
KPA1 091459Z 26006KT 08/05 A3024 RMK A01 T00810051  RH  081%=      5-min Rain = 0
KPA1 091500Z 27006KT 08/05 A3024 RMK A01 T00820053  RH  082%=      5-min Rain = 0
KPA1 091501Z 26005KT 08/06 A3024 RMK A01 T00840057  RH  083%=      5-min Rain = 0
KPA1 091502Z 26005KT 09/06 A3024 RMK A01 T00850057  RH  082%=      5-min Rain = 0
KPA1 091503Z 26005KT 09/06 A3024 RMK A01 T00860059  RH  083%=      5-min Rain = 0
KPA1 091504Z 26005KT 09/06 A3024 RMK A01 T00880062  RH  084%=      5-min Rain = 0
KPA1 091505Z 26005KT 09/06 A3024 RMK A01 T00880057  RH  081%=      5-min Rain = 0
KPA1 091506Z 27004KT 09/06 A3024 RMK A01 T00880057  RH  081%=      5-min Rain = 0
KPA1 091507Z 26004KT 09/06 A3024 RMK A01 T00880059  RH  082%=      5-min Rain = 0
KPA1 091508Z 26004KT 09/06 A3024 RMK A01 T00900064  RH  084%=      5-min Rain = 0
KPA1 091509Z 27004KT 09/06 A3024 RMK A01 T00910061  RH  081%=      5-min Rain = 0
KPA1 091510Z 26004KT 09/06 A3024 RMK A01 T00920062  RH  082%=      5-min Rain = 0
KPA1 091511Z 26004KT 09/07 A3024 RMK A01 T00930065  RH  082%=      5-min Rain = 0
KPA1 091512Z 25005KT 09/06 A3024 RMK A01 T00930064  RH  082%=      5-min Rain = 0
KPA1 091513Z 26006KT 09/06 A3024 RMK A01 T00940061  RH  080%=      5-min Rain = 0
KPA1 091514Z 27006KT 09/06 A3024 RMK A01 T00940060  RH  079%=      5-min Rain = 0
KPA1 091515Z 26005KT 09/06 A3024 RMK A01 T00940061  RH  080%=      5-min Rain = 0
KPA1 091516Z 26007KT 10/06 A3024 RMK A01 T00950062  RH  080%=      5-min Rain = 0
KPA1 091517Z 26006KT 10/06 A3024 RMK A01 T00950057  RH  077%=      5-min Rain = 0
KPA1 091518Z 26005KT 10/06 A3024 RMK A01 T00950059  RH  078%=      5-min Rain = 0
KPA1 091519Z 27004KT 10/06 A3024 RMK A01 T00950060  RH  079%=      5-min Rain = 0
KPA1 091520Z 25005KT 10/06 A3024 RMK A01 T00960061  RH  079%=      5-min Rain = 0
KPA1 091521Z 25005KT 10/06 A3024 RMK A01 T00970061  RH  078%=      5-min Rain = 0
KPA1 091522Z 25004KT 10/06 A3024 RMK A01 T00970062  RH  079%=      5-min Rain = 0
KPA1 091523Z 26005KT 10/07 A3024 RMK A01 T00990066  RH  080%=      5-min Rain = 0
KPA1 091524Z 26005KT 10/07 A3024 RMK A01 T01000065  RH  079%=      5-min Rain = 0
KPA1 091525Z 26005KT 10/07 A3024 RMK A01 T01010067  RH  079%=      5-min Rain = 0
KPA1 091526Z 26006KT 10/07 A3024 RMK A01 T01020065  RH  078%=      5-min Rain = 0
KPA1 091527Z 26006KT 10/06 A3024 RMK A01 T01020060  RH  075%=      5-min Rain = 0
KPA1 091528Z 26007KT 10/06 A3024 RMK A01 T01010058  RH  075%=      5-min Rain = 0
KPA1 091529Z 26006KT 10/06 A3024 RMK A01 T01020061  RH  076%=      5-min Rain = 0
KPA1 091530Z 26006KT 10/06 A3024 RMK A01 T01030063  RH  076%=      5-min Rain = 0
KPA1 091531Z 27006KT 10/06 A3024 RMK A01 T01040061  RH  075%=      5-min Rain = 0
KPA1 091532Z 27006KT 11/06 A3024 RMK A01 T01050061  RH  074%=      5-min Rain = 0
KPA1 091533Z 27006KT 11/06 A3024 RMK A01 T01050062  RH  075%=      5-min Rain = 0
KPA1 091534Z 27005KT 11/06 A3024 RMK A01 T01060062  RH  074%=      5-min Rain = 0
KPA1 091535Z 26005KT 11/06 A3024 RMK A01 T01060060  RH  073%=      5-min Rain = 0
KPA1 091536Z 26007KT 11/06 A3024 RMK A01 T01060061  RH  074%=      5-min Rain = 0
KPA1 091537Z 26007KT 11/06 A3024 RMK A01 T01070059  RH  072%=      5-min Rain = 0
KPA1 091538Z 26005KT 11/06 A3024 RMK A01 T01080064  RH  074%=      5-min Rain = 0
KPA1 091539Z 26004KT 11/07 A3024 RMK A01 T01100070  RH  076%=      5-min Rain = 0
KPA1 091540Z 26004KT 11/07 A3024 RMK A01 T01120068  RH  074%=      5-min Rain = 0
KPA1 091541Z 25005KT 11/07 A3024 RMK A01 T01130066  RH  072%=      5-min Rain = 0
KPA1 091542Z 25006KT 11/07 A3024 RMK A01 T01130066  RH  073%=      5-min Rain = 0
KPA1 091543Z 25005KT 11/06 A3024 RMK A01 T01140063  RH  071%=      5-min Rain = 0
KPA1 091544Z 25005KT 11/06 A3024 RMK A01 T01130062  RH  071%=      5-min Rain = 0
KPA1 091545Z 25005KT 11/06 A3024 RMK A01 T01130063  RH  071%=      5-min Rain = 0
KPA1 091546Z 26005KT 11/06 A3024 RMK A01 T01130064  RH  072%=      5-min Rain = 0
KPA1 091547Z 27004KT 12/07 A3024 RMK A01 T01150066  RH  072%=      5-min Rain = 0
KPA1 091548Z 26005KT 12/07 A3024 RMK A01 T01170067  RH  072%=      5-min Rain = 0
KPA1 091549Z 27005KT 12/06 A3024 RMK A01 T01180063  RH  069%=      5-min Rain = 0
KPA1 091550Z 27005KT 12/06 A3024 RMK A01 T01180063  RH  069%=      5-min Rain = 0
KPA1 091551Z 27006KT 12/06 A3024 RMK A01 T01180063  RH  069%=      5-min Rain = 0
KPA1 091552Z 27006KT 12/06 A3024 RMK A01 T01180060  RH  068%=      5-min Rain = 0
KPA1 091553Z 26006KT 12/06 A3024 RMK A01 T01180059  RH  067%=      5-min Rain = 0
KPA1 091554Z 25006KT 12/06 A3024 RMK A01 T01180062  RH  068%=      5-min Rain = 0
KPA1 091555Z 27006KT 12/06 A3024 RMK A01 T01200064  RH  069%=      5-min Rain = 0
KPA1 091556Z 27007KT 12/06 A3024 RMK A01 T01210062  RH  067%=      5-min Rain = 0
KPA1 091557Z 26006KT 12/06 A3024 RMK A01 T01210059  RH  066%=      5-min Rain = 0
KPA1 091558Z 26005KT 12/06 A3024 RMK A01 T01210060  RH  066%=      5-min Rain = 0
KPA1 091559Z 27005KT 12/06 A3024 RMK A01 T01220063  RH  067%=      5-min Rain = 0
KPA1 091600Z 28006KT 12/06 A3024 RMK A01 T01230064  RH  067%=      5-min Rain = 0
KPA1 091601Z 28006KT 12/06 A3024 RMK A01 T01240061  RH  065%=      5-min Rain = 0
KPA1 091602Z 29006KT 13/06 A3024 RMK A01 T01250061  RH  065%=      5-min Rain = 0
KPA1 091603Z 29005KT 13/06 A3024 RMK A01 T01250064  RH  066%=      5-min Rain = 0
KPA1 091604Z 29005KT 13/07 A3024 RMK A01 T01270065  RH  066%=      5-min Rain = 0
KPA1 091605Z 29005KT 13/06 A3024 RMK A01 T01280061  RH  064%=      5-min Rain = 0
KPA1 091606Z 29005KT 13/06 A3024 RMK A01 T01280063  RH  065%=      5-min Rain = 0
KPA1 091607Z 28005KT 13/07 A3024 RMK A01 T01290067  RH  066%=      5-min Rain = 0
KPA1 091608Z 28006KT 13/07 A3024 RMK A01 T01310067  RH  065%=      5-min Rain = 0
KPA1 091609Z 28006KT 13/07 A3024 RMK A01 T01320067  RH  065%=      5-min Rain = 0
KPA1 091610Z 28006KT 13/06 A3024 RMK A01 T01320063  RH  063%=      5-min Rain = 0
KPA1 091611Z 28006KT 13/06 A3024 RMK A01 T01310063  RH  063%=      5-min Rain = 0
KPA1 091612Z 29006KT 13/07 A3024 RMK A01 T01320065  RH  064%=      5-min Rain = 0
KPA1 091613Z 29006KT 13/07 A3024 RMK A01 T01330065  RH  063%=      5-min Rain = 0
KPA1 091614Z 29007KT 13/06 A3024 RMK A01 T01340063  RH  062%=      5-min Rain = 0
KPA1 091615Z 29006KT 13/06 A3024 RMK A01 T01340063  RH  062%=      5-min Rain = 0
KPA1 091616Z 28006KT 14/07 A3024 RMK A01 T01360065  RH  062%=      5-min Rain = 0
KPA1 091617Z 27006KT 14/06 A3024 RMK A01 T01360061  RH  060%=      5-min Rain = 0
KPA1 091618Z 27005KT 14/06 A3024 RMK A01 T01360061  RH  060%=      5-min Rain = 0
KPA1 091619Z 27005KT 14/06 A3024 RMK A01 T01360062  RH  061%=      5-min Rain = 0
KPA1 091620Z 27006KT 14/06 A3024 RMK A01 T01370063  RH  061%=      5-min Rain = 0
KPA1 091621Z 28006KT 14/06 A3024 RMK A01 T01370061  RH  060%=      5-min Rain = 0
KPA1 091622Z 28006KT 14/06 A3024 RMK A01 T01370061  RH  060%=      5-min Rain = 0
KPA1 091623Z 29007KT 14/06 A3024 RMK A01 T01370061  RH  060%=      5-min Rain = 0
KPA1 091624Z 29006KT 14/06 A3024 RMK A01 T01370063  RH  061%=      5-min Rain = 0
KPA1 091625Z 27005KT 14/07 A3024 RMK A01 T01390065  RH  061%=      5-min Rain = 0
KPA1 091626Z 27005KT 14/06 A3024 RMK A01 T01410064  RH  060%=      5-min Rain = 0
KPA1 091627Z 28006KT 14/06 A3024 RMK A01 T01410061  RH  059%=      5-min Rain = 0
KPA1 091628Z 29006KT 14/06 A3024 RMK A01 T01420063  RH  059%=      5-min Rain = 0
KPA1 091629Z 30005KT 14/07 A3024 RMK A01 T01420065  RH  060%=      5-min Rain = 0
KPA1 091630Z 30004KT 14/07 A3024 RMK A01 T01420069  RH  061%=      5-min Rain = 0
KPA1 091631Z 28005KT 14/07 A3024 RMK A01 T01440069  RH  061%=      5-min Rain = 0
KPA1 091632Z 28004KT 14/07 A3024 RMK A01 T01440067  RH  060%=      5-min Rain = 0
KPA1 091633Z 29005KT 14/07 A3024 RMK A01 T01440068  RH  060%=      5-min Rain = 0
KPA1 091634Z 27005KT 14/07 A3024 RMK A01 T01430069  RH  061%=      5-min Rain = 0
KPA1 091635Z 28005KT 14/07 A3024 RMK A01 T01440068  RH  060%=      5-min Rain = 0
KPA1 091636Z 28005KT 15/07 A3024 RMK A01 T01460067  RH  059%=      5-min Rain = 0
KPA1 091637Z 28004KT 15/07 A3024 RMK A01 T01480066  RH  058%=      5-min Rain = 0
KPA1 091638Z 28004KT 15/07 A3024 RMK A01 T01490069  RH  059%=      5-min Rain = 0
KPA1 091639Z 28005KT 15/07 A3024 RMK A01 T01530069  RH  057%=      5-min Rain = 0
KPA1 091640Z 28004KT 15/06 A3024 RMK A01 T01530064  RH  055%=      5-min Rain = 0
KPA1 091641Z 28004KT 15/07 A3024 RMK A01 T01510065  RH  056%=      5-min Rain = 0
KPA1 091642Z 29004KT 15/07 A3024 RMK A01 T01510066  RH  057%=      5-min Rain = 0
KPA1 091643Z 29004KT 15/07 A3024 RMK A01 T01520067  RH  057%=      5-min Rain = 0
KPA1 091644Z 27004KT 15/07 A3024 RMK A01 T01530068  RH  057%=      5-min Rain = 0
KPA1 091645Z 29005KT 15/07 A3024 RMK A01 T01540067  RH  056%=      5-min Rain = 0
KPA1 091646Z 29004KT 15/07 A3024 RMK A01 T01540066  RH  056%=      5-min Rain = 0
KPA1 091647Z 30005KT 15/07 A3023 RMK A01 T01540065  RH  055%=      5-min Rain = 0
KPA1 091648Z 30003KT 15/07 A3023 RMK A01 T01540065  RH  055%=      5-min Rain = 0
KPA1 091649Z 26005KT 15/07 A3023 RMK A01 T01540066  RH  056%=      5-min Rain = 0
KPA1 091650Z 26005KT 16/07 A3023 RMK A01 T01550067  RH  056%=      5-min Rain = 0
KPA1 091651Z 26005KT 16/07 A3023 RMK A01 T01570066  RH  055%=      5-min Rain = 0
KPA1 091652Z 26004KT 16/07 A3023 RMK A01 T01590068  RH  055%=      5-min Rain = 0
KPA1 091653Z 27005KT 16/07 A3023 RMK A01 T01610066  RH  053%=      5-min Rain = 0
KPA1 091654Z 28004KT 16/07 A3023 RMK A01 T01610065  RH  053%=      5-min Rain = 0
KPA1 091655Z 27004KT 16/06 A3023 RMK A01 T01600064  RH  053%=      5-min Rain = 0
KPA1 091656Z 26004KT 16/06 A3023 RMK A01 T01600062  RH  052%=      5-min Rain = 0
KPA1 091657Z 28003KT 16/06 A3023 RMK A01 T01590064  RH  053%=      5-min Rain = 0
KPA1 091658Z 27005KT 16/07 A3023 RMK A01 T01610067  RH  053%=      5-min Rain = 0
KPA1 091659Z 27004KT 16/07 A3023 RMK A01 T01640069  RH  053%=      5-min Rain = 0
KPA1 091700Z 26005KT 17/07 A3023 RMK A01 T01670066  RH  051%=      5-min Rain = 0
KPA1 091701Z 28005KT 17/06 A3023 RMK A01 T01670063  RH  050%=      5-min Rain = 0
KPA1 091702Z 27006KT 17/06 A3023 RMK A01 T01670062  RH  050%=      5-min Rain = 0
KPA1 091703Z 26005KT 17/06 A3023 RMK A01 T01670060  RH  049%=      5-min Rain = 0
KPA1 091704Z 28005KT 17/06 A3023 RMK A01 T01680061  RH  049%=      5-min Rain = 0
KPA1 091705Z 27006KT 17/06 A3023 RMK A01 T01680058  RH  048%=      5-min Rain = 0
KPA1 091706Z 27005KT 17/06 A3023 RMK A01 T01680058  RH  048%=      5-min Rain = 0
KPA1 091707Z 27005KT 17/06 A3023 RMK A01 T01680058  RH  048%=      5-min Rain = 0
KPA1 091708Z 28006KT 17/06 A3023 RMK A01 T01690059  RH  048%=      5-min Rain = 0
KPA1 091709Z 27005KT 17/06 A3023 RMK A01 T01700056  RH  047%=      5-min Rain = 0
KPA1 091710Z 28004KT 17/06 A3023 RMK A01 T01690058  RH  048%=      5-min Rain = 0
KPA1 091711Z 29003KT 17/06 A3023 RMK A01 T01690059  RH  048%=      5-min Rain = 0
KPA1 091712Z 27005KT 17/06 A3023 RMK A01 T01690058  RH  048%=      5-min Rain = 0
KPA1 091713Z 27005KT 17/06 A3023 RMK A01 T01700056  RH  047%=      5-min Rain = 0
KPA1 091714Z 28004KT 17/06 A3023 RMK A01 T01720059  RH  047%=      5-min Rain = 0
KPA1 091715Z 28006KT 17/06 A3023 RMK A01 T01730056  RH  046%=      5-min Rain = 0
KPA1 091716Z 28006KT 17/05 A3023 RMK A01 T01740051  RH  044%=      5-min Rain = 0
KPA1 091717Z 28004KT 17/06 A3023 RMK A01 T01740055  RH  045%=      5-min Rain = 0
KPA1 091718Z 26006KT 18/05 A3023 RMK A01 T01760053  RH  044%=      5-min Rain = 0
KPA1 091719Z 27006KT 18/05 A3023 RMK A01 T01760048  RH  043%=      5-min Rain = 0
KPA1 091720Z 28005KT 18/05 A3023 RMK A01 T01750046  RH  042%=      5-min Rain = 0
KPA1 091721Z 28006KT 18/04 A3022 RMK A01 T01760044  RH  042%=      5-min Rain = 0
KPA1 091722Z 28006KT 18/05 A3023 RMK A01 T01770046  RH  042%=      5-min Rain = 0
KPA1 091723Z 27005KT 18/05 A3022 RMK A01 T01770050  RH  043%=      5-min Rain = 0
KPA1 091724Z 28005KT 18/05 A3022 RMK A01 T01770049  RH  043%=      5-min Rain = 0
KPA1 091725Z 27006KT 18/05 A3022 RMK A01 T01790051  RH  043%=      5-min Rain = 0
KPA1 091726Z 28004KT 18/05 A3022 RMK A01 T01800052  RH  043%=      5-min Rain = 0
KPA1 091727Z 30002KT 18/05 A3022 RMK A01 T01810050  RH  042%=      5-min Rain = 0
KPA1 091728Z 28004KT 18/05 A3022 RMK A01 T01820051  RH  042%=      5-min Rain = 0
KPA1 091729Z 27005KT 18/05 A3022 RMK A01 T01830054  RH  043%=      5-min Rain = 0
KPA1 091730Z 27004KT 18/05 A3022 RMK A01 T01840054  RH  042%=      5-min Rain = 0
KPA1 091731Z 26003KT 18/05 A3022 RMK A01 T01840053  RH  042%=      5-min Rain = 0
KPA1 091732Z 24005KT 18/05 A3022 RMK A01 T01840048  RH  041%=      5-min Rain = 0
KPA1 091733Z 24005KT 18/05 A3022 RMK A01 T01830048  RH  041%=      5-min Rain = 0
KPA1 091734Z 25004KT 18/05 A3022 RMK A01 T01830053  RH  042%=      5-min Rain = 0
KPA1 091735Z 24004KT 18/05 A3022 RMK A01 T01820051  RH  042%=      5-min Rain = 0
KPA1 091736Z 26006KT 19/05 A3022 RMK A01 T01850051  RH  041%=      5-min Rain = 0
KPA1 091737Z 26004KT 19/05 A3022 RMK A01 T01870047  RH  040%=      5-min Rain = 0
KPA1 091738Z 26005KT 19/05 A3022 RMK A01 T01870047  RH  040%=      5-min Rain = 0
KPA1 091739Z 25004KT 19/05 A3022 RMK A01 T01860046  RH  039%=      5-min Rain = 0
KPA1 091740Z 24004KT 19/05 A3022 RMK A01 T01870048  RH  040%=      5-min Rain = 0
KPA1 091741Z 25006KT 19/05 A3022 RMK A01 T01880049  RH  040%=      5-min Rain = 0
KPA1 091742Z 26005KT 19/05 A3022 RMK A01 T01890048  RH  039%=      5-min Rain = 0
KPA1 091743Z 25004KT 19/05 A3022 RMK A01 T01890046  RH  039%=      5-min Rain = 0
KPA1 091744Z 23004KT 19/05 A3022 RMK A01 T01890048  RH  040%=      5-min Rain = 0
KPA1 091745Z 21004KT 19/05 A3022 RMK A01 T01890048  RH  039%=      5-min Rain = 0
KPA1 091746Z 23004KT 19/05 A3022 RMK A01 T01910052  RH  040%=      5-min Rain = 0
KPA1 091747Z 22005KT 19/05 A3022 RMK A01 T01930054  RH  040%=      5-min Rain = 0
KPA1 091748Z 23005KT 20/06 A3022 RMK A01 T01950055  RH  040%=      5-min Rain = 0
KPA1 091749Z 23004KT 19/05 A3021 RMK A01 T01940052  RH  039%=      5-min Rain = 0
KPA1 091750Z 23006KT 19/05 A3021 RMK A01 T01940049  RH  039%=      5-min Rain = 0
KPA1 091751Z 24005KT 20/04 A3021 RMK A01 T01950043  RH  037%=      5-min Rain = 0
KPA1 091752Z 24006KT 20/04 A3021 RMK A01 T01950044  RH  037%=      5-min Rain = 0
KPA1 091753Z 24004KT 20/04 A3021 RMK A01 T01960042  RH  036%=      5-min Rain = 0
KPA1 091754Z 24005KT 20/04 A3021 RMK A01 T01950044  RH  037%=      5-min Rain = 0
KPA1 091755Z 23005KT 20/04 A3021 RMK A01 T01960043  RH  036%=      5-min Rain = 0
KPA1 091756Z 25005KT 20/05 A3021 RMK A01 T01970045  RH  037%=      5-min Rain = 0
KPA1 091757Z 24004KT 20/05 A3021 RMK A01 T01970045  RH  037%=      5-min Rain = 0
KPA1 091758Z 23004KT 20/05 A3021 RMK A01 T01980045  RH  037%=      5-min Rain = 0
KPA1 091759Z 23005KT 20/04 A3021 RMK A01 T01980041  RH  035%=      5-min Rain = 0
KPA1 091800Z 23005KT 20/04 A3021 RMK A01 T01990037  RH  034%=      5-min Rain = 0
KPA1 091801Z 22004KT 20/03 A3021 RMK A01 T01990034  RH  034%=      5-min Rain = 0
KPA1 091802Z 22004KT 20/03 A3021 RMK A01 T02000032  RH  033%=      5-min Rain = 0
KPA1 091803Z 23004KT 20/04 A3021 RMK A01 T02000035  RH  034%=      5-min Rain = 0
KPA1 091804Z 23005KT 20/04 A3021 RMK A01 T02010035  RH  033%=      5-min Rain = 0
KPA1 091805Z 23005KT 20/03 A3021 RMK A01 T02020034  RH  033%=      5-min Rain = 0
KPA1 091806Z 23005KT 20/03 A3021 RMK A01 T02020034  RH  033%=      5-min Rain = 0
KPA1 091807Z 23005KT 20/04 A302 RMK A01 T02020036  RH  033%=      5-min Rain = 0
KPA1 091808Z 23005KT 20/04 A302 RMK A01 T02030035  RH  033%=      5-min Rain = 0
KPA1 091809Z 23005KT 20/04 A302 RMK A01 T02040035  RH  033%=      5-min Rain = 0
KPA1 091810Z 23005KT 21/03 A302 RMK A01 T02050033  RH  032%=      5-min Rain = 0
KPA1 091811Z 22006KT 21/04 A302 RMK A01 T02060036  RH  033%=      5-min Rain = 0
KPA1 091812Z 22004KT 21/04 A302 RMK A01 T02070036  RH  032%=      5-min Rain = 0
KPA1 091813Z 22004KT 21/04 A302 RMK A01 T02060036  RH  032%=      5-min Rain = 0
KPA1 091814Z 22004KT 21/04 A302 RMK A01 T02070039  RH  033%=      5-min Rain = 0
KPA1 091815Z 25005KT 21/04 A302 RMK A01 T02090036  RH  032%=      5-min Rain = 0
KPA1 091816Z 24004KT 21/04 A302 RMK A01 T02090037  RH  032%=      5-min Rain = 0
KPA1 091817Z 24005KT 21/04 A302 RMK A01 T02110038  RH  032%=      5-min Rain = 0
KPA1 091818Z 22004KT 21/04 A302 RMK A01 T02110036  RH  032%=      5-min Rain = 0
KPA1 091819Z 19004KT 21/03 A302 RMK A01 T02110030  RH  030%=      5-min Rain = 0
KPA1 091820Z 23005KT 21/03 A302 RMK A01 T02130032  RH  030%=      5-min Rain = 0
KPA1 091821Z 25004KT 21/03 A302 RMK A01 T02120026  RH  029%=      5-min Rain = 0
KPA1 091822Z 24007KT 21/02 A302 RMK A01 T02110019  RH  028%=      5-min Rain = 0
KPA1 091823Z 21006KT 21/02 A3019 RMK A01 T02120024  RH  029%=      5-min Rain = 0
KPA1 091824Z 21005KT 21/03 A3019 RMK A01 T02130026  RH  029%=      5-min Rain = 0
KPA1 091825Z 22007KT 22/02 A3019 RMK A01 T02160020  RH  027%=      5-min Rain = 0
KPA1 091826Z 22006KT 22/01 A3019 RMK A01 T02160013  RH  026%=      5-min Rain = 0
KPA1 091827Z 21006KT 22/01 A3019 RMK A01 T02160011  RH  026%=      5-min Rain = 0
KPA1 091828Z 20006KT 22/02 A3019 RMK A01 T02150016  RH  027%=      5-min Rain = 0
KPA1 091829Z 23006KT 22/02 A3019 RMK A01 T02160022  RH  028%=      5-min Rain = 0
KPA1 091830Z 22007KT 22/03 A3019 RMK A01 T02180025  RH  028%=      5-min Rain = 0
KPA1 091831Z 22005KT 22/02 A3019 RMK A01 T02170020  RH  027%=      5-min Rain = 0
KPA1 091832Z 22004KT 22/02 A3019 RMK A01 T02150019  RH  027%=      5-min Rain = 0
KPA1 091833Z 23006KT 22/02 A3019 RMK A01 T02150023  RH  028%=      5-min Rain = 0
KPA1 091834Z 22007KT 22/02 A3019 RMK A01 T02160017  RH  027%=      5-min Rain = 0
KPA1 091835Z 21007KT 22/01 A3019 RMK A01 T02170010  RH  025%=      5-min Rain = 0
KPA1 091836Z 21007KT 22/01 A3018 RMK A01 T02200009  RH  025%=      5-min Rain = 0
KPA1 091837Z 21009KT 22/01 A3018 RMK A01 T02220008  RH  024%=      5-min Rain = 0
KPA1 091838Z 21008KT 22/01 A3018 RMK A01 T02210009  RH  024%=      5-min Rain = 0
KPA1 091839Z 21008KT 22/01 A3018 RMK A01 T02200010  RH  025%=      5-min Rain = 0
KPA1 091840Z 22007KT 22/01 A3018 RMK A01 T02190009  RH  025%=      5-min Rain = 0
KPA1 091841Z 21007KT 22/01 A3018 RMK A01 T02200012  RH  025%=      5-min Rain = 0
KPA1 091842Z 20009KT 22/02 A3018 RMK A01 T02220017  RH  026%=      5-min Rain = 0
KPA1 091843Z 19007KT 22/02 A3018 RMK A01 T02240016  RH  025%=      5-min Rain = 0
KPA1 091844Z 18006KT 22/01 A3018 RMK A01 T02230014  RH  025%=      5-min Rain = 0
KPA1 091845Z 20007KT 22/02 A3018 RMK A01 T02240015  RH  025%=      5-min Rain = 0
KPA1 091846Z 19006KT 23/02 A3018 RMK A01 T02250018  RH  025%=      5-min Rain = 0
KPA1 091847Z 21007KT 23/03 A3018 RMK A01 T02260025  RH  027%=      5-min Rain = 0
KPA1 091848Z 20007KT 23/02 A3018 RMK A01 T02270021  RH  026%=      5-min Rain = 0
KPA1 091849Z 20008KT 23/02 A3018 RMK A01 T02260024  RH  026%=      5-min Rain = 0
KPA1 091850Z 22007KT 22/03 A3018 RMK A01 T02240025  RH  027%=      5-min Rain = 0
KPA1 091851Z 23008KT 22/02 A3018 RMK A01 T02230022  RH  027%=      5-min Rain = 0
KPA1 091852Z 23005KT 22/02 A3017 RMK A01 T02230024  RH  027%=      5-min Rain = 0
KPA1 091853Z 22005KT 22/03 A3017 RMK A01 T02230026  RH  027%=      5-min Rain = 0
KPA1 091854Z 21008KT 22/03 A3017 RMK A01 T02230025  RH  027%=      5-min Rain = 0
KPA1 091855Z 21009KT 22/02 A3017 RMK A01 T02210020  RH  027%=      5-min Rain = 0
KPA1 091856Z 21009KT 22/02 A3017 RMK A01 T02200021  RH  027%=      5-min Rain = 0
KPA1 091857Z 20008KT 22/02 A3017 RMK A01 T02230021  RH  027%=      5-min Rain = 0
KPA1 091858Z 21008KT 23/02 A3017 RMK A01 T02250017  RH  025%=      5-min Rain = 0
KPA1 091859Z 20007KT 23/01 A3017 RMK A01 T02260013  RH  024%=      5-min Rain = 0
KPA1 091900Z 20007KT 23/02 A3017 RMK A01 T02250020  RH  026%=      5-min Rain = 0
KPA1 091901Z 21007KT 23/02 A3017 RMK A01 T02260022  RH  026%=      5-min Rain = 0
KPA1 091902Z 21007KT 23/02 A3017 RMK A01 T02260021  RH  026%=      5-min Rain = 0
KPA1 091903Z 23007KT 23/02 A3017 RMK A01 T02250024  RH  027%=      5-min Rain = 0
KPA1 091904Z 23006KT 22/03 A3017 RMK A01 T02240025  RH  027%=      5-min Rain = 0
KPA1 091905Z 22007KT 22/03 A3017 RMK A01 T02240028  RH  028%=      5-min Rain = 0
KPA1 091906Z 22007KT 23/03 A3016 RMK A01 T02260029  RH  027%=      5-min Rain = 0
KPA1 091907Z 21007KT 23/03 A3016 RMK A01 T02270026  RH  027%=      5-min Rain = 0
KPA1 091908Z 21007KT 23/02 A3016 RMK A01 T02260023  RH  026%=      5-min Rain = 0
KPA1 091909Z 22007KT 23/02 A3016 RMK A01 T02270024  RH  026%=      5-min Rain = 0
KPA1 091910Z 22009KT 23/02 A3016 RMK A01 T02290022  RH  026%=      5-min Rain = 0
KPA1 091911Z 20008KT 23/02 A3016 RMK A01 T02280022  RH  026%=      5-min Rain = 0
KPA1 091912Z 20008KT 23/02 A3016 RMK A01 T02300021  RH  025%=      5-min Rain = 0
KPA1 091913Z 22008KT 23/01 A3016 RMK A01 T02310014  RH  024%=      5-min Rain = 0
KPA1 091914Z 22008KT 23/01 A3016 RMK A01 T02270013  RH  024%=      5-min Rain = 0
KPA1 091915Z 22008KT 23/01 A3016 RMK A01 T02270011  RH  024%=      5-min Rain = 0
KPA1 091916Z 22007KT 23/01 A3016 RMK A01 T02270013  RH  024%=      5-min Rain = 0
KPA1 091917Z 23007KT 23/01 A3016 RMK A01 T02290013  RH  024%=      5-min Rain = 0
KPA1 091918Z 22006KT 23/02 A3016 RMK A01 T02280016  RH  025%=      5-min Rain = 0
KPA1 091919Z 21008KT 23/02 A3015 RMK A01 T02290021  RH  025%=      5-min Rain = 0
KPA1 091920Z 21007KT 23/02 A3015 RMK A01 T02310016  RH  024%=      5-min Rain = 0
KPA1 091921Z 21009KT 23/01 A3015 RMK A01 T02310009  RH  023%=      5-min Rain = 0
KPA1 091922Z 19009KT 23/00 A3015 RMK A01 T02310003  RH  022%=      5-min Rain = 0
KPA1 091923Z 19010KT 23/M00 A3015 RMK A01 T02321002  RH  021%=      5-min Rain = 0
KPA1 091924Z 20010KT 23/M00 A3015 RMK A01 T02341001  RH  021%=      5-min Rain = 0
KPA1 091925Z 20010KT 24/M02 A3015 RMK A01 T02361015  RH  019%=      5-min Rain = 0
KPA1 091926Z 21010KT 24/M02 A3015 RMK A01 T02361020  RH  018%=      5-min Rain = 0
KPA1 091927Z 20007KT 24/M02 A3015 RMK A01 T02351017  RH  019%=      5-min Rain = 0
KPA1 091928Z 18008KT 24/M02 A3015 RMK A01 T02351016  RH  019%=      5-min Rain = 0
KPA1 091929Z 20007KT 24/M02 A3015 RMK A01 T02361017  RH  018%=      5-min Rain = 0
KPA1 091930Z 20007KT 24/M01 A3015 RMK A01 T02371014  RH  019%=      5-min Rain = 0
KPA1 091931Z 21009KT 24/M01 A3015 RMK A01 T02371007  RH  020%=      5-min Rain = 0
KPA1 091932Z 21009KT 23/M01 A3015 RMK A01 T02331011  RH  020%=      5-min Rain = 0
KPA1 091933Z 22008KT 23/M02 A3015 RMK A01 T02321017  RH  019%=      5-min Rain = 0
KPA1 091934Z 21010KT 23/M01 A3015 RMK A01 T02311010  RH  020%=      5-min Rain = 0
KPA1 091935Z 21009KT 23/M01 A3015 RMK A01 T02311005  RH  021%=      5-min Rain = 0
KPA1 091936Z 22008KT 23/M01 A3015 RMK A01 T02301008  RH  021%=      5-min Rain = 0
KPA1 091937Z 23007KT 23/M01 A3015 RMK A01 T02301013  RH  020%=      5-min Rain = 0
KPA1 091938Z 21009KT 23/M01 A3014 RMK A01 T02311010  RH  020%=      5-min Rain = 0
KPA1 091939Z 21009KT 23/M01 A3014 RMK A01 T02331007  RH  020%=      5-min Rain = 0
KPA1 091940Z 21008KT 23/M01 A3014 RMK A01 T02341007  RH  020%=      5-min Rain = 0
KPA1 091941Z 21008KT 23/M01 A3014 RMK A01 T02341011  RH  020%=      5-min Rain = 0
KPA1 091942Z 20008KT 23/M01 A3014 RMK A01 T02331009  RH  020%=      5-min Rain = 0
KPA1 091943Z 20006KT 23/M01 A3014 RMK A01 T02341014  RH  019%=      5-min Rain = 0
KPA1 091944Z 20007KT 23/M01 A3014 RMK A01 T02341014  RH  019%=      5-min Rain = 0
KPA1 091945Z 20010KT 23/M01 A3014 RMK A01 T02341013  RH  019%=      5-min Rain = 0
KPA1 091946Z 20009KT 23/M01 A3014 RMK A01 T02341012  RH  019%=      5-min Rain = 0
KPA1 091947Z 20010KT 24/M02 A3014 RMK A01 T02361022  RH  018%=      5-min Rain = 0
KPA1 091948Z 19008KT 24/M03 A3014 RMK A01 T02371027  RH  017%=      5-min Rain = 0
KPA1 091949Z 21009KT 24/M03 A3014 RMK A01 T02381026  RH  017%=      5-min Rain = 0
KPA1 091950Z 21008KT 24/M02 A3014 RMK A01 T02361017  RH  019%=      5-min Rain = 0
KPA1 091951Z 21008KT 24/M01 A3014 RMK A01 T02351012  RH  019%=      5-min Rain = 0
KPA1 091952Z 22009KT 24/M02 A3014 RMK A01 T02361023  RH  018%=      5-min Rain = 0
KPA1 091953Z 20009KT 23/M03 A3014 RMK A01 T02341031  RH  017%=      5-min Rain = 0
KPA1 091954Z 20012KT 23/M03 A3014 RMK A01 T02341026  RH  018%=      5-min Rain = 0
KPA1 091955Z 20010KT 24/M03 A3014 RMK A01 T02351031  RH  017%=      5-min Rain = 0
KPA1 091956Z 20009KT 24/M04 A3014 RMK A01 T02351035  RH  016%=      5-min Rain = 0
KPA1 091957Z 20009KT 24/M03 A3014 RMK A01 T02351033  RH  017%=      5-min Rain = 0
KPA1 091958Z 20007G13KT 24/M03 A3014 RMK A01 T02351028  RH  017%=      5-min Rain = 0
KPA1 091959Z 19009KT 24/M03 A3014 RMK A01 T02361025  RH  017%=      5-min Rain = 0
KPA1 092000Z 20009KT 24/M03 A3014 RMK A01 T02361027  RH  017%=      5-min Rain = 0
KPA1 092001Z 21010KT 24/M02 A3013 RMK A01 T02361019  RH  018%=      5-min Rain = 0
KPA1 092002Z 22008KT 24/M02 A3013 RMK A01 T02361021  RH  018%=      5-min Rain = 0
KPA1 092003Z 22008KT 24/M02 A3013 RMK A01 T02371024  RH  017%=      5-min Rain = 0
KPA1 092004Z 20007KT 24/M03 A3013 RMK A01 T02361027  RH  017%=      5-min Rain = 0
KPA1 092005Z 21009KT 24/M02 A3013 RMK A01 T02351017  RH  019%=      5-min Rain = 0
KPA1 092006Z 21010KT 24/M02 A3013 RMK A01 T02371018  RH  018%=      5-min Rain = 0
KPA1 092007Z 21009KT 24/M02 A3013 RMK A01 T02371017  RH  018%=      5-min Rain = 0
KPA1 092008Z 21008KT 24/M02 A3013 RMK A01 T02371017  RH  018%=      5-min Rain = 0
KPA1 092009Z 20005KT 24/M02 A3013 RMK A01 T02351023  RH  018%=      5-min Rain = 0
KPA1 092010Z 21007KT 23/M02 A3013 RMK A01 T02331020  RH  018%=      5-min Rain = 0
KPA1 092011Z 21010KT 24/M02 A3013 RMK A01 T02351016  RH  019%=      5-min Rain = 0
KPA1 092012Z 20009KT 24/M02 A3013 RMK A01 T02351016  RH  019%=      5-min Rain = 0
KPA1 092013Z 21010KT 24/M02 A3013 RMK A01 T02351017  RH  019%=      5-min Rain = 0
KPA1 092014Z 21008KT 23/M03 A3013 RMK A01 T02341025  RH  018%=      5-min Rain = 0
KPA1 092015Z 21008KT 23/M02 A3013 RMK A01 T02341021  RH  018%=      5-min Rain = 0
KPA1 092016Z 21008KT 24/M02 A3013 RMK A01 T02351017  RH  019%=      5-min Rain = 0
KPA1 092017Z 22007KT 24/M02 A3013 RMK A01 T02351018  RH  018%=      5-min Rain = 0
KPA1 092018Z 22009KT 24/M02 A3013 RMK A01 T02361019  RH  018%=      5-min Rain = 0
KPA1 092019Z 20008KT 24/M02 A3013 RMK A01 T02371019  RH  018%=      5-min Rain = 0
KPA1 092020Z 19005KT 24/M02 A3013 RMK A01 T02351019  RH  018%=      5-min Rain = 0
KPA1 092021Z 20007KT 24/M01 A3013 RMK A01 T02371014  RH  019%=      5-min Rain = 0
KPA1 092022Z 20007KT 24/M01 A3013 RMK A01 T02381006  RH  020%=      5-min Rain = 0
KPA1 092023Z 19010KT 24/M01 A3013 RMK A01 T02391006  RH  020%=      5-min Rain = 0
KPA1 092024Z 19009KT 24/M02 A3013 RMK A01 T02391016  RH  018%=      5-min Rain = 0
KPA1 092025Z 19007KT 24/M02 A3013 RMK A01 T02401019  RH  018%=      5-min Rain = 0
KPA1 092026Z 20008KT 24/M02 A3013 RMK A01 T02411019  RH  018%=      5-min Rain = 0
KPA1 092027Z 22008KT 24/M02 A3013 RMK A01 T02391020  RH  018%=      5-min Rain = 0
KPA1 092028Z 22007KT 24/M02 A3013 RMK A01 T02371016  RH  019%=      5-min Rain = 0
KPA1 092029Z 22007KT 24/M02 A3013 RMK A01 T02361018  RH  018%=      5-min Rain = 0
KPA1 092030Z 20007KT 24/M02 A3013 RMK A01 T02361018  RH  018%=      5-min Rain = 0
KPA1 092031Z 19011KT 24/M01 A3013 RMK A01 T02361011  RH  019%=      5-min Rain = 0
KPA1 092032Z 18010KT 24/M02 A3013 RMK A01 T02361022  RH  018%=      5-min Rain = 0
KPA1 092033Z 19008KT 24/M03 A3013 RMK A01 T02361027  RH  017%=      5-min Rain = 0
KPA1 092034Z 20008KT 24/M02 A3013 RMK A01 T02361024  RH  018%=      5-min Rain = 0
KPA1 092035Z 20007KT 24/M03 A3013 RMK A01 T02361025  RH  017%=      5-min Rain = 0
KPA1 092036Z 21008KT 24/M03 A3013 RMK A01 T02361025  RH  018%=      5-min Rain = 0
KPA1 092037Z 20009KT 24/M02 A3013 RMK A01 T02361019  RH  018%=      5-min Rain = 0
KPA1 092038Z 21008KT 24/M02 A3013 RMK A01 T02371020  RH  018%=      5-min Rain = 0
KPA1 092039Z 22007KT 24/M02 A3012 RMK A01 T02371021  RH  018%=      5-min Rain = 0
KPA1 092040Z 22009KT 24/M02 A3012 RMK A01 T02371016  RH  018%=      5-min Rain = 0
KPA1 092041Z 22008KT 24/M02 A3012 RMK A01 T02381021  RH  018%=      5-min Rain = 0
KPA1 092042Z 22010KT 24/M02 A3012 RMK A01 T02391021  RH  018%=      5-min Rain = 0
KPA1 092043Z 23009KT 24/M03 A3012 RMK A01 T02371025  RH  017%=      5-min Rain = 0
KPA1 092044Z 21011KT 24/M02 A3012 RMK A01 T02361024  RH  018%=      5-min Rain = 0
KPA1 092045Z 19010KT 24/M02 A3012 RMK A01 T02351018  RH  018%=      5-min Rain = 0
KPA1 092046Z 18010KT 23/M02 A3012 RMK A01 T02331015  RH  019%=      5-min Rain = 0
KPA1 092047Z 19010KT 23/M02 A3012 RMK A01 T02341020  RH  018%=      5-min Rain = 0
KPA1 092048Z 18009KT 24/M03 A3012 RMK A01 T02371029  RH  017%=      5-min Rain = 0
KPA1 092049Z 18008KT 24/M03 A3012 RMK A01 T02371028  RH  017%=      5-min Rain = 0
KPA1 092050Z 18009KT 24/M02 A3012 RMK A01 T02391024  RH  017%=      5-min Rain = 0
KPA1 092051Z 19010KT 24/M03 A3012 RMK A01 T02391026  RH  017%=      5-min Rain = 0
KPA1 092052Z 19010KT 24/M03 A3012 RMK A01 T02391025  RH  017%=      5-min Rain = 0
KPA1 092053Z 19010KT 24/M02 A3012 RMK A01 T02391022  RH  018%=      5-min Rain = 0
KPA1 092054Z 19010KT 24/M02 A3012 RMK A01 T02391022  RH  018%=      5-min Rain = 0
KPA1 092055Z 20007KT 24/M02 A3012 RMK A01 T02391024  RH  017%=      5-min Rain = 0
KPA1 092056Z 22008KT 24/M02 A3012 RMK A01 T02391021  RH  018%=      5-min Rain = 0
KPA1 092057Z 21007KT 24/M02 A3012 RMK A01 T02391016  RH  018%=      5-min Rain = 0
KPA1 092058Z 19009KT 24/M02 A3012 RMK A01 T02391017  RH  018%=      5-min Rain = 0
KPA1 092059Z 21008KT 24/M02 A3012 RMK A01 T02381016  RH  018%=      5-min Rain = 0
KPA1 092100Z 22010KT 24/M01 A3011 RMK A01 T02371014  RH  019%=      5-min Rain = 0
KPA1 092101Z 21010KT 24/M02 A3012 RMK A01 T02361015  RH  019%=      5-min Rain = 0
KPA1 092102Z 21009KT 24/M01 A3012 RMK A01 T02351009  RH  020%=      5-min Rain = 0
KPA1 092103Z 22008KT 23/M02 A3012 RMK A01 T02341016  RH  019%=      5-min Rain = 0
KPA1 092104Z 21006KT 23/M02 A3012 RMK A01 T02341021  RH  018%=      5-min Rain = 0
KPA1 092105Z 20006KT 24/M02 A3012 RMK A01 T02361019  RH  018%=      5-min Rain = 0
KPA1 092106Z 20008KT 24/M02 A3011 RMK A01 T02361016  RH  019%=      5-min Rain = 0
KPA1 092107Z 19008KT 24/M01 A3011 RMK A01 T02371013  RH  019%=      5-min Rain = 0
KPA1 092108Z 21009KT 24/M01 A3011 RMK A01 T02371010  RH  019%=      5-min Rain = 0
KPA1 092109Z 21009KT 24/M01 A3011 RMK A01 T02371011  RH  019%=      5-min Rain = 0
KPA1 092110Z 22008KT 24/M02 A3011 RMK A01 T02361015  RH  019%=      5-min Rain = 0
KPA1 092111Z 21008KT 24/M02 A3011 RMK A01 T02361021  RH  018%=      5-min Rain = 0
KPA1 092112Z 22009KT 24/M02 A3011 RMK A01 T02361024  RH  018%=      5-min Rain = 0
KPA1 092113Z 22009KT 23/M03 A3011 RMK A01 T02341027  RH  017%=      5-min Rain = 0
KPA1 092114Z 21007KT 23/M03 A3011 RMK A01 T02341027  RH  017%=      5-min Rain = 0
KPA1 092115Z 22009KT 23/M02 A3011 RMK A01 T02341015  RH  019%=      5-min Rain = 0
KPA1 092116Z 21007KT 23/M01 A3011 RMK A01 T02341012  RH  020%=      5-min Rain = 0
KPA1 092117Z 21008KT 24/M02 A3011 RMK A01 T02361016  RH  019%=      5-min Rain = 0
KPA1 092118Z 21009KT 24/M02 A3011 RMK A01 T02361017  RH  019%=      5-min Rain = 0
KPA1 092119Z 22007KT 24/M02 A3011 RMK A01 T02351016  RH  019%=      5-min Rain = 0
KPA1 092120Z 20008KT 24/M02 A3011 RMK A01 T02351019  RH  018%=      5-min Rain = 0
KPA1 092121Z 19009KT 23/M01 A3011 RMK A01 T02341013  RH  019%=      5-min Rain = 0
KPA1 092122Z 19009KT 24/M01 A3011 RMK A01 T02351009  RH  020%=      5-min Rain = 0
KPA1 092123Z 18008KT 24/M01 A3011 RMK A01 T02351005  RH  020%=      5-min Rain = 0
KPA1 092124Z 19011KT 24/M01 A3011 RMK A01 T02371008  RH  020%=      5-min Rain = 0
KPA1 092125Z 20010KT 24/M00 A3011 RMK A01 T02371004  RH  020%=      5-min Rain = 0
KPA1 092126Z 20012KT 24/M00 A3011 RMK A01 T02351004  RH  020%=      5-min Rain = 0
KPA1 092127Z 20009KT 23/M01 A3011 RMK A01 T02341013  RH  019%=      5-min Rain = 0
KPA1 092128Z 20008KT 23/M01 A3011 RMK A01 T02341014  RH  019%=      5-min Rain = 0
KPA1 092129Z 20010KT 24/M01 A3011 RMK A01 T02351011  RH  019%=      5-min Rain = 0
KPA1 092130Z 19011KT 24/M01 A3011 RMK A01 T02361009  RH  020%=      5-min Rain = 0
KPA1 092131Z 19010KT 24/M01 A3011 RMK A01 T02351012  RH  019%=      5-min Rain = 0
KPA1 092132Z 19008KT 23/M01 A3011 RMK A01 T02341011  RH  020%=      5-min Rain = 0
KPA1 092133Z 19009KT 23/M01 A3011 RMK A01 T02341006  RH  020%=      5-min Rain = 0
KPA1 092134Z 19011KT 24/M00 A3011 RMK A01 T02351002  RH  021%=      5-min Rain = 0
KPA1 092135Z 19010KT 24/M01 A3011 RMK A01 T02351008  RH  020%=      5-min Rain = 0
KPA1 092136Z 18010KT 23/M01 A3011 RMK A01 T02341008  RH  020%=      5-min Rain = 0
KPA1 092137Z 18009KT 23/M01 A3011 RMK A01 T02331009  RH  020%=      5-min Rain = 0
KPA1 092138Z 19009KT 23/M01 A301 RMK A01 T02341009  RH  020%=      5-min Rain = 0
KPA1 092139Z 19008KT 23/M01 A3011 RMK A01 T02341009  RH  020%=      5-min Rain = 0
KPA1 092140Z 19007KT 23/M00 A301 RMK A01 T02341002  RH  021%=      5-min Rain = 0
KPA1 092141Z 19008KT 23/00 A301 RMK A01 T02340002  RH  021%=      5-min Rain = 0
KPA1 092142Z 20008KT 23/00 A301 RMK A01 T02340000  RH  021%=      5-min Rain = 0
KPA1 092143Z 21009KT 23/00 A301 RMK A01 T02330003  RH  022%=      5-min Rain = 0
KPA1 092144Z 21009KT 23/00 A301 RMK A01 T02320000  RH  021%=      5-min Rain = 0
KPA1 092145Z 20008KT 23/M00 A301 RMK A01 T02321002  RH  021%=      5-min Rain = 0
KPA1 092146Z 20008KT 23/00 A301 RMK A01 T023200-0  RH  022%=      5-min Rain = 0
KPA1 092147Z 18010KT 23/00 A301 RMK A01 T02300000  RH  022%=      5-min Rain = 0
KPA1 092148Z 19010KT 23/M01 A301 RMK A01 T02291005  RH  021%=      5-min Rain = 0
KPA1 092149Z 19009KT 23/M01 A301 RMK A01 T02301005  RH  021%=      5-min Rain = 0
KPA1 092150Z 20009KT 23/M01 A301 RMK A01 T02311006  RH  021%=      5-min Rain = 0
KPA1 092151Z 21008KT 23/M01 A301 RMK A01 T02311010  RH  020%=      5-min Rain = 0
KPA1 092152Z 20009KT 23/M01 A301 RMK A01 T02321010  RH  020%=      5-min Rain = 0
KPA1 092153Z 20007KT 23/M00 A301 RMK A01 T02331004  RH  021%=      5-min Rain = 0
KPA1 092154Z 20009KT 23/M00 A301 RMK A01 T02331004  RH  021%=      5-min Rain = 0
KPA1 092155Z 20009KT 23/M00 A301 RMK A01 T02321004  RH  021%=      5-min Rain = 0
KPA1 092156Z 20008KT 23/M00 A301 RMK A01 T02311002  RH  021%=      5-min Rain = 0
KPA1 092157Z 19007KT 23/M00 A301 RMK A01 T02311002  RH  021%=      5-min Rain = 0
KPA1 092158Z 20009KT 23/M00 A301 RMK A01 T02321001  RH  021%=      5-min Rain = 0
KPA1 092159Z 19009KT 23/M00 A301 RMK A01 T02321003  RH  021%=      5-min Rain = 0
KPA1 092200Z 18007KT 23/00 A301 RMK A01 T02310001  RH  022%=      5-min Rain = 0
KPA1 092201Z 18007KT 23/M00 A301 RMK A01 T02301001  RH  022%=      5-min Rain = 0
KPA1 092202Z 18009KT 23/M01 A301 RMK A01 T02301010  RH  020%=      5-min Rain = 0
KPA1 092203Z 19011KT 23/M01 A301 RMK A01 T02311014  RH  020%=      5-min Rain = 0
KPA1 092204Z 21009KT 23/M01 A301 RMK A01 T02321014  RH  019%=      5-min Rain = 0
KPA1 092205Z 21009KT 23/M01 A301 RMK A01 T02311011  RH  020%=      5-min Rain = 0
KPA1 092206Z 20007KT 23/M02 A301 RMK A01 T02301015  RH  019%=      5-min Rain = 0
KPA1 092207Z 19008KT 23/M01 A301 RMK A01 T02311011  RH  020%=      5-min Rain = 0
KPA1 092208Z 19008KT 23/M01 A301 RMK A01 T02311008  RH  020%=      5-min Rain = 0
KPA1 092209Z 19007KT 23/M01 A301 RMK A01 T02291008  RH  021%=      5-min Rain = 0
KPA1 092210Z 19006KT 23/M01 A301 RMK A01 T02281006  RH  021%=      5-min Rain = 0
KPA1 092211Z 19009KT 23/M01 A301 RMK A01 T02281007  RH  021%=      5-min Rain = 0
KPA1 092212Z 18010KT 23/M01 A301 RMK A01 T02281013  RH  020%=      5-min Rain = 0
KPA1 092213Z 18010KT 23/M02 A301 RMK A01 T02281023  RH  019%=      5-min Rain = 0
KPA1 092214Z 18011KT 23/M03 A301 RMK A01 T02281026  RH  018%=      5-min Rain = 0
KPA1 092215Z 18009KT 23/M03 A3009 RMK A01 T02281025  RH  018%=      5-min Rain = 0
KPA1 092216Z 19009KT 23/M02 A3009 RMK A01 T02271020  RH  019%=      5-min Rain = 0
KPA1 092217Z 18009KT 23/M02 A3009 RMK A01 T02281020  RH  019%=      5-min Rain = 0
KPA1 092218Z 18011KT 23/M02 A3009 RMK A01 T02281020  RH  019%=      5-min Rain = 0
KPA1 092219Z 18010KT 23/M02 A3009 RMK A01 T02271024  RH  018%=      5-min Rain = 0
KPA1 092220Z 18011KT 23/M02 A3009 RMK A01 T02281024  RH  019%=      5-min Rain = 0
KPA1 092221Z 18010KT 23/M02 A3009 RMK A01 T02281024  RH  019%=      5-min Rain = 0
KPA1 092222Z 19010KT 23/M03 A3009 RMK A01 T02281025  RH  018%=      5-min Rain = 0
KPA1 092223Z 18008KT 23/M02 A3009 RMK A01 T02271023  RH  019%=      5-min Rain = 0
KPA1 092224Z 18009KT 23/M02 A3009 RMK A01 T02271019  RH  019%=      5-min Rain = 0
KPA1 092225Z 19010KT 23/M02 A3009 RMK A01 T02261020  RH  019%=      5-min Rain = 0
KPA1 092226Z 19010KT 23/M02 A3009 RMK A01 T02261019  RH  019%=      5-min Rain = 0
KPA1 092227Z 18010KT 23/M02 A3009 RMK A01 T02251019  RH  019%=      5-min Rain = 0
KPA1 092228Z 18008KT 23/M02 A3009 RMK A01 T02251022  RH  019%=      5-min Rain = 0
KPA1 092229Z 19009KT 23/M02 A3009 RMK A01 T02251022  RH  019%=      5-min Rain = 0
KPA1 092230Z 18009KT 23/M03 A3009 RMK A01 T02251025  RH  019%=      5-min Rain = 0
KPA1 092231Z 18008KT 23/M03 A3009 RMK A01 T02251025  RH  019%=      5-min Rain = 0
KPA1 092232Z 18010KT 23/M02 A3009 RMK A01 T02251021  RH  019%=      5-min Rain = 0
KPA1 092233Z 18008KT 22/M02 A3009 RMK A01 T02241019  RH  020%=      5-min Rain = 0
KPA1 092234Z 18009KT 22/M02 A3009 RMK A01 T02241020  RH  020%=      5-min Rain = 0
KPA1 092235Z 19008KT 22/M02 A3009 RMK A01 T02231020  RH  020%=      5-min Rain = 0
KPA1 092236Z 18009KT 22/M02 A3009 RMK A01 T02231020  RH  020%=      5-min Rain = 0
KPA1 092237Z 18010KT 22/M02 A3009 RMK A01 T02221022  RH  019%=      5-min Rain = 0
KPA1 092238Z 18007KT 22/M02 A3009 RMK A01 T02221022  RH  019%=      5-min Rain = 0
KPA1 092239Z 19008KT 22/M02 A3009 RMK A01 T02221020  RH  020%=      5-min Rain = 0
KPA1 092240Z 18009KT 22/M02 A3009 RMK A01 T02211017  RH  020%=      5-min Rain = 0
KPA1 092241Z 18009KT 22/M02 A3009 RMK A01 T02211015  RH  021%=      5-min Rain = 0
KPA1 092242Z 18008KT 22/M02 A3009 RMK A01 T02201016  RH  021%=      5-min Rain = 0
KPA1 092243Z 18008KT 22/M02 A3009 RMK A01 T02191016  RH  021%=      5-min Rain = 0
KPA1 092244Z 18010KT 22/M02 A3009 RMK A01 T02191019  RH  020%=      5-min Rain = 0
KPA1 092245Z 17007KT 22/M02 A3009 RMK A01 T02191020  RH  020%=      5-min Rain = 0
KPA1 092246Z 17007KT 22/M02 A3009 RMK A01 T02191016  RH  021%=      5-min Rain = 0
KPA1 092247Z 18007KT 22/M01 A3009 RMK A01 T02181013  RH  021%=      5-min Rain = 0
KPA1 092248Z 18007KT 22/M01 A3009 RMK A01 T02171012  RH  022%=      5-min Rain = 0
KPA1 092249Z 18007KT 22/M01 A3009 RMK A01 T02151010  RH  022%=      5-min Rain = 0
KPA1 092250Z 18007KT 21/M01 A3009 RMK A01 T02141009  RH  023%=      5-min Rain = 0
KPA1 092251Z 18008KT 21/M01 A3009 RMK A01 T02121009  RH  023%=      5-min Rain = 0
KPA1 092252Z 18008KT 21/M01 A3009 RMK A01 T02121010  RH  023%=      5-min Rain = 0
KPA1 092253Z 18008KT 21/M01 A3009 RMK A01 T02111012  RH  022%=      5-min Rain = 0
KPA1 092254Z 18007KT 21/M02 A3009 RMK A01 T02111015  RH  022%=      5-min Rain = 0
KPA1 092255Z 18007KT 21/M02 A3009 RMK A01 T02111016  RH  022%=      5-min Rain = 0
KPA1 092256Z 18007KT 21/M02 A3009 RMK A01 T02101015  RH  022%=      5-min Rain = 0
KPA1 092257Z 18007KT 21/M02 A3009 RMK A01 T02091015  RH  022%=      5-min Rain = 0
KPA1 092258Z 18007KT 21/M02 A3009 RMK A01 T02081018  RH  022%=      5-min Rain = 0
KPA1 092259Z 18008KT 21/M02 A3009 RMK A01 T02081018  RH  022%=      5-min Rain = 0
KPA1 092300Z 18007KT 21/M02 A3009 RMK A01 T02071017  RH  022%=      5-min Rain = 0
KPA1 092301Z 17007KT 21/M02 A3009 RMK A01 T02051016  RH  023%=      5-min Rain = 0
KPA1 092302Z 18007KT 20/M01 A3009 RMK A01 T02041012  RH  023%=      5-min Rain = 0
KPA1 092303Z 18007KT 20/M01 A3009 RMK A01 T02021011  RH  024%=      5-min Rain = 0
KPA1 092304Z 18007KT 20/M01 A3009 RMK A01 T02011009  RH  024%=      5-min Rain = 0
KPA1 092305Z 18007KT 20/M01 A3009 RMK A01 T01991008  RH  025%=      5-min Rain = 0
KPA1 092306Z 18007KT 20/M01 A3009 RMK A01 T01981007  RH  025%=      5-min Rain = 0
KPA1 092307Z 18007KT 20/M01 A3009 RMK A01 T01961007  RH  026%=      5-min Rain = 0
KPA1 092308Z 18008KT 20/M01 A3009 RMK A01 T01951007  RH  026%=      5-min Rain = 0
KPA1 092309Z 18007KT 19/M01 A3009 RMK A01 T01941007  RH  026%=      5-min Rain = 0
KPA1 092310Z 18007KT 19/M01 A3009 RMK A01 T01931008  RH  026%=      5-min Rain = 0
KPA1 092311Z 18007KT 19/M01 A3009 RMK A01 T01911008  RH  026%=      5-min Rain = 0
KPA1 092312Z 18007KT 19/M01 A3009 RMK A01 T01911008  RH  026%=      5-min Rain = 0
KPA1 092313Z 18007KT 19/M01 A3009 RMK A01 T01891008  RH  026%=      5-min Rain = 0
KPA1 092314Z 18007KT 19/M01 A3009 RMK A01 T01881006  RH  027%=      5-min Rain = 0
KPA1 092315Z 18007KT 19/M00 A3009 RMK A01 T01861004  RH  028%=      5-min Rain = 0
KPA1 092316Z 18007KT 19/M00 A3009 RMK A01 T01851003  RH  028%=      5-min Rain = 0
KPA1 092317Z 18007KT 18/M00 A3009 RMK A01 T01831004  RH  028%=      5-min Rain = 0
KPA1 092318Z 18007KT 18/M00 A3009 RMK A01 T01811002  RH  029%=      5-min Rain = 0
KPA1 092319Z 18007KT 18/M00 A3009 RMK A01 T01801001  RH  029%=      5-min Rain = 0
KPA1 092320Z 18007KT 18/M00 A3009 RMK A01 T01771001  RH  030%=      5-min Rain = 0
KPA1 092321Z 18007KT 18/00 A3009 RMK A01 T01760000  RH  031%=      5-min Rain = 0
KPA1 092322Z 18007KT 17/00 A3009 RMK A01 T01740001  RH  031%=      5-min Rain = 0
KPA1 092323Z 18007KT 17/00 A3009 RMK A01 T01710002  RH  032%=      5-min Rain = 0
KPA1 092324Z 18007KT 17/00 A3009 RMK A01 T01690003  RH  032%=      5-min Rain = 0
KPA1 092325Z 18007KT 17/00 A3009 RMK A01 T01670004  RH  033%=      5-min Rain = 0
KPA1 092326Z 18007KT 16/01 A3009 RMK A01 T01640005  RH  034%=      5-min Rain = 0
KPA1 092327Z 18007KT 16/01 A3009 RMK A01 T01620005  RH  034%=      5-min Rain = 0
KPA1 092328Z 18007KT 16/01 A3009 RMK A01 T01600005  RH  035%=      5-min Rain = 0
KPA1 092329Z 18007KT 16/01 A3009 RMK A01 T01580007  RH  036%=      5-min Rain = 0
KPA1 092330Z 18006KT 16/01 A3009 RMK A01 T01560008  RH  036%=      5-min Rain = 0
KPA1 092331Z 18006KT 16/01 A3009 RMK A01 T01550009  RH  037%=      5-min Rain = 0
KPA1 092332Z 18007KT 15/01 A3009 RMK A01 T01530009  RH  037%=      5-min Rain = 0
KPA1 092333Z 18007KT 15/01 A3009 RMK A01 T01510009  RH  038%=      5-min Rain = 0
KPA1 092334Z 18007KT 15/01 A3009 RMK A01 T01490008  RH  038%=      5-min Rain = 0
KPA1 092335Z 18008KT 15/01 A3009 RMK A01 T01480007  RH  038%=      5-min Rain = 0
KPA1 092336Z 18008KT 15/01 A3009 RMK A01 T01450006  RH  039%=      5-min Rain = 0
KPA1 092337Z 17007KT 14/01 A3009 RMK A01 T01430006  RH  039%=      5-min Rain = 0
KPA1 092338Z 17008KT 14/01 A3009 RMK A01 T01410005  RH  039%=      5-min Rain = 0
KPA1 092339Z 17008KT 14/00 A3009 RMK A01 T01390004  RH  040%=      5-min Rain = 0
KPA1 092340Z 17008KT 14/00 A3009 RMK A01 T01380003  RH  040%=      5-min Rain = 0
KPA1 092341Z 17008KT 14/00 A3009 RMK A01 T01370001  RH  039%=      5-min Rain = 0
KPA1 092342Z 17008KT 14/00 A3009 RMK A01 T01360001  RH  039%=      5-min Rain = 0
KPA1 092343Z 17007KT 14/00 A3009 RMK A01 T01350000  RH  040%=      5-min Rain = 0
KPA1 092344Z 17007KT 13/00 A3009 RMK A01 T013400-0  RH  040%=      5-min Rain = 0
KPA1 092345Z 17007KT 13/M00 A3008 RMK A01 T01321001  RH  040%=      5-min Rain = 0
KPA1 092346Z 17007KT 13/M00 A3008 RMK A01 T01311002  RH  040%=      5-min Rain = 0
KPA1 092347Z 17007KT 13/M00 A3008 RMK A01 T01301003  RH  040%=      5-min Rain = 0
KPA1 092348Z 17007KT 13/M00 A3009 RMK A01 T01281004  RH  040%=      5-min Rain = 0
KPA1 092349Z 17006KT 13/M00 A3009 RMK A01 T01251001  RH  042%=      5-min Rain = 0
KPA1 092350Z 17006KT 12/00 A3009 RMK A01 T01230001  RH  043%=      5-min Rain = 0
KPA1 092351Z 17007KT 12/00 A3009 RMK A01 T01220001  RH  043%=      5-min Rain = 0
KPA1 092352Z 17007KT 12/00 A3009 RMK A01 T01220001  RH  043%=      5-min Rain = 0
KPA1 092353Z 17007KT 12/00 A3009 RMK A01 T01210001  RH  043%=      5-min Rain = 0
KPA1 092354Z 17007KT 12/00 A3009 RMK A01 T01210001  RH  043%=      5-min Rain = 0
KPA1 092355Z 17007KT 12/00 A3009 RMK A01 T01210001  RH  044%=      5-min Rain = 0
KPA1 092356Z 18007KT 12/00 A3009 RMK A01 T01220001  RH  044%=      5-min Rain = 0
KPA1 092357Z 17007KT 12/00 A3009 RMK A01 T01220001  RH  043%=      5-min Rain = 0
KPA1 092358Z 17007KT 12/00 A3009 RMK A01 T01220001  RH  043%=      5-min Rain = 0
KPA1 092359Z 17006KT 12/00 A3009 RMK A01 T01210002  RH  044%=      5-min Rain = 0
KPA1 100000Z 17006KT 12/00 A3009 RMK A01 T01190001  RH  044%=      5-min Rain = 0
KPA1 100001Z 17005KT 12/00 A3009 RMK A01 T01180001  RH  045%=      5-min Rain = 0
KPA1 100002Z 17006KT 12/00 A3009 RMK A01 T01170002  RH  045%=      5-min Rain = 0
KPA1 100003Z 17006KT 12/00 A3009 RMK A01 T01160002  RH  046%=      5-min Rain = 0
KPA1 100004Z 17006KT 12/00 A3009 RMK A01 T01150003  RH  046%=      5-min Rain = 0
KPA1 100005Z 16006KT 11/00 A3009 RMK A01 T01140003  RH  046%=      5-min Rain = 0
KPA1 100006Z 17006KT 11/00 A3009 RMK A01 T01140003  RH  046%=      5-min Rain = 0
KPA1 100007Z 17006KT 11/00 A3009 RMK A01 T01130003  RH  047%=      5-min Rain = 0
KPA1 100008Z 17006KT 11/00 A3009 RMK A01 T01130003  RH  047%=      5-min Rain = 0
KPA1 100009Z 17006KT 11/00 A3009 RMK A01 T01130003  RH  047%=      5-min Rain = 0
KPA1 100010Z 17006KT 11/00 A3009 RMK A01 T01130003  RH  047%=      5-min Rain = 0
KPA1 100011Z 17006KT 11/00 A3009 RMK A01 T01120003  RH  047%=      5-min Rain = 0
KPA1 100012Z 17006KT 11/00 A3009 RMK A01 T01120003  RH  047%=      5-min Rain = 0
KPA1 100013Z 17006KT 11/00 A3009 RMK A01 T01120004  RH  047%=      5-min Rain = 0
KPA1 100014Z 17006KT 11/00 A3009 RMK A01 T01120004  RH  047%=      5-min Rain = 0
KPA1 100015Z 18006KT 11/01 A3009 RMK A01 T01120005  RH  048%=      5-min Rain = 0
KPA1 100016Z 18006KT 11/01 A3009 RMK A01 T01120006  RH  048%=      5-min Rain = 0
KPA1 100017Z 17007KT 11/01 A3009 RMK A01 T01120006  RH  048%=      5-min Rain = 0
KPA1 100018Z 17006KT 11/01 A3009 RMK A01 T01110007  RH  049%=      5-min Rain = 0
KPA1 100019Z 18006KT 11/01 A3009 RMK A01 T01100008  RH  049%=      5-min Rain = 0
KPA1 100020Z 18006KT 11/01 A3009 RMK A01 T01100009  RH  050%=      5-min Rain = 0
KPA1 100021Z 18005KT 11/01 A3009 RMK A01 T01090010  RH  050%=      5-min Rain = 0
KPA1 100022Z 18006KT 11/01 A3009 RMK A01 T01090011  RH  051%=      5-min Rain = 0
KPA1 100023Z 18006KT 11/01 A3009 RMK A01 T01080012  RH  052%=      5-min Rain = 0
KPA1 100024Z 18006KT 11/01 A3009 RMK A01 T01070013  RH  052%=      5-min Rain = 0
KPA1 100025Z 18006KT 11/01 A3009 RMK A01 T01070013  RH  052%=      5-min Rain = 0
KPA1 100026Z 18006KT 11/01 A3009 RMK A01 T01070013  RH  052%=      5-min Rain = 0
KPA1 100027Z 18006KT 11/01 A3009 RMK A01 T01070013  RH  052%=      5-min Rain = 0
KPA1 100028Z 18005KT 11/01 A3009 RMK A01 T01070013  RH  052%=      5-min Rain = 0
KPA1 100029Z 18005KT 11/01 A3009 RMK A01 T01070012  RH  052%=      5-min Rain = 0
KPA1 100030Z 18005KT 11/01 A3009 RMK A01 T01070013  RH  052%=      5-min Rain = 0
KPA1 100031Z 18005KT 11/01 A3009 RMK A01 T01070013  RH  052%=      5-min Rain = 0
KPA1 100032Z 18005KT 11/01 A3009 RMK A01 T01070013  RH  052%=      5-min Rain = 0
KPA1 100033Z 18005KT 11/01 A3009 RMK A01 T01070013  RH  052%=      5-min Rain = 0
KPA1 100034Z 18005KT 11/01 A3009 RMK A01 T01070014  RH  052%=      5-min Rain = 0
KPA1 100035Z 18005KT 11/01 A3009 RMK A01 T01060014  RH  053%=      5-min Rain = 0
KPA1 100036Z 18005KT 11/01 A3009 RMK A01 T01050014  RH  053%=      5-min Rain = 0
KPA1 100037Z 18005KT 10/01 A3009 RMK A01 T01040014  RH  054%=      5-min Rain = 0
KPA1 100038Z 19005KT 10/02 A3009 RMK A01 T01030016  RH  055%=      5-min Rain = 0
KPA1 100039Z 19005KT 10/02 A3009 RMK A01 T01020018  RH  056%=      5-min Rain = 0
KPA1 100040Z 19006KT 10/02 A3009 RMK A01 T01020018  RH  056%=      5-min Rain = 0
KPA1 100041Z 19005KT 10/02 A3009 RMK A01 T01010018  RH  056%=      5-min Rain = 0
KPA1 100042Z 19005KT 10/02 A3009 RMK A01 T01000018  RH  057%=      5-min Rain = 0
KPA1 100043Z 18005KT 10/02 A3009 RMK A01 T00990018  RH  057%=      5-min Rain = 0
KPA1 100044Z 19004KT 10/02 A3009 RMK A01 T00980018  RH  057%=      5-min Rain = 0
KPA1 100045Z 19005KT 10/02 A3009 RMK A01 T00980019  RH  058%=      5-min Rain = 0
KPA1 100046Z 19006KT 10/02 A3009 RMK A01 T00970018  RH  058%=      5-min Rain = 0
KPA1 100047Z 19005KT 10/02 A3009 RMK A01 T00960018  RH  058%=      5-min Rain = 0
KPA1 100048Z 19005KT 10/02 A3009 RMK A01 T00950018  RH  059%=      5-min Rain = 0
KPA1 100049Z 19005KT 10/02 A3009 RMK A01 T00950019  RH  059%=      5-min Rain = 0
KPA1 100050Z 18005KT 10/02 A3009 RMK A01 T00950019  RH  059%=      5-min Rain = 0
KPA1 100051Z 19005KT 10/02 A3009 RMK A01 T00950019  RH  059%=      5-min Rain = 0
KPA1 100052Z 18005KT 10/02 A3009 RMK A01 T00950018  RH  059%=      5-min Rain = 0
KPA1 100053Z 18005KT 09/02 A3009 RMK A01 T00940018  RH  059%=      5-min Rain = 0
KPA1 100054Z 18005KT 09/02 A3009 RMK A01 T00920018  RH  060%=      5-min Rain = 0
KPA1 100055Z 18005KT 09/02 A3009 RMK A01 T00910018  RH  060%=      5-min Rain = 0
KPA1 100056Z 18005KT 09/02 A3009 RMK A01 T00900018  RH  061%=      5-min Rain = 0
KPA1 100057Z 18005KT 09/02 A3009 RMK A01 T00880018  RH  061%=      5-min Rain = 0
KPA1 100058Z 18005KT 09/02 A3009 RMK A01 T00870017  RH  062%=      5-min Rain = 0
KPA1 100059Z 18005KT 09/02 A3009 RMK A01 T00860018  RH  062%=      5-min Rain = 0
KPA1 100100Z 18006KT 09/02 A3009 RMK A01 T00850018  RH  063%=      5-min Rain = 0
KPA1 100101Z 18005KT 09/02 A3009 RMK A01 T00870020  RH  063%=      5-min Rain = 0
KPA1 100102Z 18006KT 09/02 A3009 RMK A01 T00880020  RH  062%=      5-min Rain = 0
KPA1 100103Z 18006KT 09/02 A3009 RMK A01 T00890020  RH  062%=      5-min Rain = 0
KPA1 100104Z 18006KT 09/02 A3009 RMK A01 T00890019  RH  061%=      5-min Rain = 0
KPA1 100105Z 18007KT 09/02 A3009 RMK A01 T00890019  RH  061%=      5-min Rain = 0
KPA1 100106Z 18007KT 09/02 A3009 RMK A01 T00880019  RH  062%=      5-min Rain = 0
KPA1 100107Z 18007KT 09/02 A3009 RMK A01 T00880019  RH  062%=      5-min Rain = 0
KPA1 100108Z 18007KT 09/02 A3009 RMK A01 T00880020  RH  062%=      5-min Rain = 0
KPA1 100109Z 18007KT 09/02 A3009 RMK A01 T00880020  RH  062%=      5-min Rain = 0
KPA1 100110Z 17007KT 09/02 A3009 RMK A01 T00880020  RH  062%=      5-min Rain = 0
KPA1 100111Z 17007KT 09/02 A3009 RMK A01 T00880021  RH  063%=      5-min Rain = 0
KPA1 100112Z 17007KT 09/02 A3009 RMK A01 T00890022  RH  063%=      5-min Rain = 0
KPA1 100113Z 17007KT 09/02 A3009 RMK A01 T00890022  RH  063%=      5-min Rain = 0
KPA1 100114Z 17007KT 09/02 A3009 RMK A01 T00890023  RH  063%=      5-min Rain = 0
KPA1 100115Z 18007KT 09/02 A3009 RMK A01 T00880024  RH  064%=      5-min Rain = 0
KPA1 100116Z 18007KT 09/02 A3009 RMK A01 T00860024  RH  065%=      5-min Rain = 0
KPA1 100117Z 18007KT 09/02 A3009 RMK A01 T00850023  RH  065%=      5-min Rain = 0
KPA1 100118Z 18007KT 08/02 A3009 RMK A01 T00840024  RH  066%=      5-min Rain = 0
KPA1 100119Z 18007KT 08/02 A3009 RMK A01 T00830024  RH  066%=      5-min Rain = 0
KPA1 100120Z 18007KT 08/02 A3009 RMK A01 T00810024  RH  067%=      5-min Rain = 0
KPA1 100121Z 18007KT 08/02 A3009 RMK A01 T00790024  RH  068%=      5-min Rain = 0
KPA1 100122Z 18007KT 08/02 A3009 RMK A01 T00780024  RH  068%=      5-min Rain = 0
KPA1 100123Z 19007KT 08/02 A3009 RMK A01 T00780024  RH  069%=      5-min Rain = 0
KPA1 100124Z 19005KT 08/02 A3009 RMK A01 T00790024  RH  068%=      5-min Rain = 0
KPA1 100125Z 20004KT 08/02 A3009 RMK A01 T00800023  RH  068%=      5-min Rain = 0
KPA1 100126Z 19004KT 08/02 A3009 RMK A01 T00800023  RH  067%=      5-min Rain = 0
KPA1 100127Z 19004KT 08/02 A3009 RMK A01 T00800023  RH  067%=      5-min Rain = 0
KPA1 100128Z 20004KT 08/02 A3009 RMK A01 T00800024  RH  068%=      5-min Rain = 0
KPA1 100129Z 20004KT 08/02 A3009 RMK A01 T00780024  RH  068%=      5-min Rain = 0
KPA1 100130Z 20004KT 08/02 A3009 RMK A01 T00780024  RH  069%=      5-min Rain = 0
KPA1 100131Z 20004KT 08/03 A3009 RMK A01 T00770025  RH  070%=      5-min Rain = 0
KPA1 100132Z 19004KT 08/03 A3009 RMK A01 T00760025  RH  070%=      5-min Rain = 0
KPA1 100133Z 20004KT 08/02 A3009 RMK A01 T00760024  RH  070%=      5-min Rain = 0
KPA1 100134Z 20003KT 08/02 A3009 RMK A01 T00750023  RH  070%=      5-min Rain = 0
KPA1 100135Z 20003KT 07/02 A3009 RMK A01 T00730021  RH  069%=      5-min Rain = 0
KPA1 100136Z 20003KT 07/02 A3009 RMK A01 T00710020  RH  070%=      5-min Rain = 0
KPA1 100137Z 20003KT 07/02 A3009 RMK A01 T00690020  RH  071%=      5-min Rain = 0
KPA1 100138Z 20002KT 07/02 A3009 RMK A01 T00690021  RH  071%=      5-min Rain = 0
KPA1 100139Z 20002KT 07/02 A3009 RMK A01 T00670021  RH  072%=      5-min Rain = 0
KPA1 100140Z 20002KT 07/02 A3009 RMK A01 T00670021  RH  072%=      5-min Rain = 0
KPA1 100141Z 22001KT 07/02 A3009 RMK A01 T00670021  RH  073%=      5-min Rain = 0
KPA1 100142Z 21001KT 07/02 A3009 RMK A01 T00660022  RH  073%=      5-min Rain = 0
KPA1 100143Z 20002KT 07/02 A3009 RMK A01 T00650022  RH  074%=      5-min Rain = 0
KPA1 100144Z 20002KT 07/02 A3009 RMK A01 T00650022  RH  074%=      5-min Rain = 0
KPA1 100145Z 20002KT 07/02 A3009 RMK A01 T00650023  RH  075%=      5-min Rain = 0
KPA1 100146Z 20002KT 07/02 A3009 RMK A01 T00650023  RH  075%=      5-min Rain = 0
KPA1 100147Z 20002KT 07/02 A3009 RMK A01 T00650022  RH  074%=      5-min Rain = 0
KPA1 100148Z 19002KT 07/02 A3009 RMK A01 T00650021  RH  073%=      5-min Rain = 0
KPA1 100149Z 20002KT 07/02 A3009 RMK A01 T00650019  RH  072%=      5-min Rain = 0
KPA1 100150Z 21001KT 07/02 A3009 RMK A01 T00650018  RH  072%=      5-min Rain = 0
KPA1 100151Z 20001KT 07/02 A3009 RMK A01 T00650018  RH  072%=      5-min Rain = 0
KPA1 100152Z 19001KT 06/02 A3009 RMK A01 T00640017  RH  072%=      5-min Rain = 0
KPA1 100153Z 18001KT 06/02 A3009 RMK A01 T00630016  RH  072%=      5-min Rain = 0
KPA1 100154Z 20000KT 06/02 A3009 RMK A01 T00630016  RH  072%=      5-min Rain = 0
KPA1 100155Z 22000KT 06/02 A3009 RMK A01 T00620016  RH  072%=      5-min Rain = 0
KPA1 100156Z 20001KT 06/02 A3009 RMK A01 T00620016  RH  072%=      5-min Rain = 0
KPA1 100157Z 20002KT 06/02 A3008 RMK A01 T00620016  RH  072%=      5-min Rain = 0
KPA1 100158Z 20001KT 06/02 A3008 RMK A01 T00620016  RH  072%=      5-min Rain = 0
KPA1 100159Z 20002KT 06/02 A3008 RMK A01 T00620016  RH  072%=      5-min Rain = 0
KPA1 100200Z 20002KT 06/02 A3008 RMK A01 T00620015  RH  072%=      5-min Rain = 0
KPA1 100201Z 20003KT 06/02 A3008 RMK A01 T00620015  RH  072%=      5-min Rain = 0
KPA1 100202Z 20003KT 06/02 A3008 RMK A01 T00630016  RH  072%=      5-min Rain = 0
KPA1 100203Z 20003KT 06/02 A3008 RMK A01 T00630015  RH  072%=      5-min Rain = 0
KPA1 100204Z 20003KT 06/02 A3008 RMK A01 T00630015  RH  071%=      5-min Rain = 0
KPA1 100205Z 21003KT 06/02 A3008 RMK A01 T00630015  RH  071%=      5-min Rain = 0
KPA1 100206Z 21003KT 06/02 A3008 RMK A01 T00620015  RH  071%=      5-min Rain = 0
KPA1 100207Z 21002KT 06/02 A3008 RMK A01 T00620015  RH  072%=      5-min Rain = 0
KPA1 100208Z 21002KT 06/01 A3008 RMK A01 T00610014  RH  072%=      5-min Rain = 0
KPA1 100209Z 21002KT 06/01 A3008 RMK A01 T00600014  RH  072%=      5-min Rain = 0
KPA1 100210Z 21002KT 06/01 A3008 RMK A01 T00590014  RH  073%=      5-min Rain = 0
KPA1 100211Z 21002KT 06/01 A3009 RMK A01 T00590014  RH  073%=      5-min Rain = 0
KPA1 100212Z 21001KT 06/01 A3009 RMK A01 T00590014  RH  073%=      5-min Rain = 0
KPA1 100213Z 21001KT 06/02 A3009 RMK A01 T00590015  RH  073%=      5-min Rain = 0
KPA1 100214Z 22001KT 06/01 A3009 RMK A01 T00590014  RH  073%=      5-min Rain = 0
KPA1 100215Z 22001KT 06/01 A3009 RMK A01 T00590014  RH  073%=      5-min Rain = 0
KPA1 100216Z 22002KT 06/02 A3009 RMK A01 T00590015  RH  073%=      5-min Rain = 0
KPA1 100217Z 21001KT 06/02 A3009 RMK A01 T00590015  RH  073%=      5-min Rain = 0
KPA1 100218Z 21001KT 06/01 A3009 RMK A01 T00600014  RH  073%=      5-min Rain = 0
KPA1 100219Z 21001KT 06/01 A3009 RMK A01 T00590013  RH  072%=      5-min Rain = 0
KPA1 100220Z 20002KT 06/02 A3009 RMK A01 T00580015  RH  073%=      5-min Rain = 0
KPA1 100221Z 20002KT 06/02 A3009 RMK A01 T00600015  RH  073%=      5-min Rain = 0
KPA1 100222Z 20002KT 06/01 A3009 RMK A01 T00610014  RH  072%=      5-min Rain = 0
KPA1 100223Z 20002KT 06/01 A3009 RMK A01 T00620014  RH  071%=      5-min Rain = 0
KPA1 100224Z 21003KT 06/01 A3009 RMK A01 T00630014  RH  071%=      5-min Rain = 0
KPA1 100225Z 21002KT 06/01 A3009 RMK A01 T00640014  RH  070%=      5-min Rain = 0
KPA1 100226Z 22003KT 07/01 A3009 RMK A01 T00660014  RH  069%=      5-min Rain = 0
KPA1 100227Z 23003KT 07/01 A3009 RMK A01 T00680014  RH  068%=      5-min Rain = 0
KPA1 100228Z 22003KT 07/01 A3009 RMK A01 T00700014  RH  068%=      5-min Rain = 0
KPA1 100229Z 22003KT 07/02 A3009 RMK A01 T00730016  RH  067%=      5-min Rain = 0
KPA1 100230Z 22004KT 08/02 A3009 RMK A01 T00750016  RH  066%=      5-min Rain = 0
KPA1 100231Z 22004KT 08/02 A3008 RMK A01 T00770016  RH  065%=      5-min Rain = 0
KPA1 100232Z 22005KT 08/01 A3008 RMK A01 T00780014  RH  064%=      5-min Rain = 0
KPA1 100233Z 22006KT 08/01 A3008 RMK A01 T00770012  RH  064%=      5-min Rain = 0
KPA1 100234Z 22005KT 08/01 A3008 RMK A01 T00770014  RH  064%=      5-min Rain = 0
KPA1 100235Z 22006KT 08/02 A3008 RMK A01 T00770015  RH  065%=      5-min Rain = 0
KPA1 100236Z 22006KT 08/02 A3008 RMK A01 T00760015  RH  065%=      5-min Rain = 0
KPA1 100237Z 22006KT 08/02 A3008 RMK A01 T00760016  RH  066%=      5-min Rain = 0
KPA1 100238Z 22006KT 08/02 A3008 RMK A01 T00760018  RH  067%=      5-min Rain = 0
KPA1 100239Z 21006KT 08/02 A3008 RMK A01 T00750018  RH  067%=      5-min Rain = 0
KPA1 100240Z 22005KT 08/02 A3008 RMK A01 T00750018  RH  068%=      5-min Rain = 0
KPA1 100241Z 21005KT 07/02 A3009 RMK A01 T00740019  RH  068%=      5-min Rain = 0
KPA1 100242Z 21006KT 07/02 A3009 RMK A01 T00730019  RH  069%=      5-min Rain = 0
KPA1 100243Z 21006KT 07/02 A3009 RMK A01 T00730018  RH  068%=      5-min Rain = 0
KPA1 100244Z 21006KT 07/02 A3009 RMK A01 T00730018  RH  068%=      5-min Rain = 0
KPA1 100245Z 21006KT 07/02 A3009 RMK A01 T00730017  RH  068%=      5-min Rain = 0
KPA1 100246Z 21005KT 07/02 A3009 RMK A01 T00720016  RH  068%=      5-min Rain = 0
KPA1 100247Z 21005KT 07/02 A3009 RMK A01 T00700015  RH  068%=      5-min Rain = 0
KPA1 100248Z 21005KT 07/02 A3009 RMK A01 T00680015  RH  069%=      5-min Rain = 0
KPA1 100249Z 21005KT 07/02 A3008 RMK A01 T00680016  RH  069%=      5-min Rain = 0
KPA1 100250Z 21005KT 07/02 A3008 RMK A01 T00670017  RH  070%=      5-min Rain = 0
KPA1 100251Z 21005KT 07/02 A3008 RMK A01 T00660017  RH  071%=      5-min Rain = 0
KPA1 100252Z 21004KT 07/02 A3008 RMK A01 T00650018  RH  072%=      5-min Rain = 0
KPA1 100253Z 21004KT 06/02 A3008 RMK A01 T00640019  RH  073%=      5-min Rain = 0
KPA1 100254Z 21005KT 06/02 A3008 RMK A01 T00630020  RH  074%=      5-min Rain = 0
KPA1 100255Z 21005KT 06/02 A3008 RMK A01 T00630021  RH  075%=      5-min Rain = 0
KPA1 100256Z 21005KT 06/02 A3008 RMK A01 T00620021  RH  075%=      5-min Rain = 0
KPA1 100257Z 21005KT 06/02 A3008 RMK A01 T00610021  RH  075%=      5-min Rain = 0
KPA1 100258Z 21005KT 06/02 A3008 RMK A01 T00620021  RH  075%=      5-min Rain = 0
KPA1 100259Z 21005KT 06/02 A3008 RMK A01 T00610020  RH  075%=      5-min Rain = 0
KPA1 100300Z 21004KT 06/02 A3008 RMK A01 T00610019  RH  074%=      5-min Rain = 0
KPA1 100301Z 20005KT 06/02 A3008 RMK A01 T00620019  RH  074%=      5-min Rain = 0
KPA1 100302Z 21004KT 06/02 A3008 RMK A01 T00610019  RH  074%=      5-min Rain = 0
KPA1 100303Z 21005KT 06/02 A3008 RMK A01 T00610019  RH  074%=      5-min Rain = 0
KPA1 100304Z 21004KT 06/02 A3009 RMK A01 T00620018  RH  074%=      5-min Rain = 0
KPA1 100305Z 21004KT 06/02 A3009 RMK A01 T00620018  RH  073%=      5-min Rain = 0
KPA1 100306Z 21004KT 06/02 A3009 RMK A01 T00630017  RH  072%=      5-min Rain = 0
KPA1 100307Z 21004KT 06/02 A3009 RMK A01 T00630018  RH  073%=      5-min Rain = 0
KPA1 100308Z 21004KT 06/02 A3009 RMK A01 T00640019  RH  073%=      5-min Rain = 0
KPA1 100309Z 21004KT 07/02 A3009 RMK A01 T00660020  RH  073%=      5-min Rain = 0
KPA1 100310Z 21005KT 07/02 A3009 RMK A01 T00670019  RH  071%=      5-min Rain = 0
KPA1 100311Z 21005KT 07/02 A3008 RMK A01 T00680017  RH  070%=      5-min Rain = 0
KPA1 100312Z 21005KT 07/02 A3009 RMK A01 T00690017  RH  070%=      5-min Rain = 0
KPA1 100313Z 21005KT 07/02 A3009 RMK A01 T00690017  RH  069%=      5-min Rain = 0
KPA1 100314Z 21005KT 07/02 A3009 RMK A01 T00700018  RH  069%=      5-min Rain = 0
KPA1 100315Z 21005KT 07/02 A3009 RMK A01 T00700018  RH  069%=      5-min Rain = 0
KPA1 100316Z 21005KT 07/02 A3009 RMK A01 T00700018  RH  070%=      5-min Rain = 0
KPA1 100317Z 21005KT 07/02 A3009 RMK A01 T00700019  RH  070%=      5-min Rain = 0
KPA1 100318Z 21005KT 07/02 A3009 RMK A01 T00690019  RH  070%=      5-min Rain = 0
KPA1 100319Z 21005KT 07/02 A3009 RMK A01 T00690019  RH  071%=      5-min Rain = 0
KPA1 100320Z 21005KT 07/02 A3009 RMK A01 T00680019  RH  071%=      5-min Rain = 0
KPA1 100321Z 22005KT 07/02 A3009 RMK A01 T00670018  RH  071%=      5-min Rain = 0
KPA1 100322Z 22005KT 07/02 A3009 RMK A01 T00660017  RH  071%=      5-min Rain = 0
KPA1 100323Z 21005KT 07/02 A3009 RMK A01 T00660016  RH  070%=      5-min Rain = 0
KPA1 100324Z 22005KT 07/02 A3009 RMK A01 T00660015  RH  070%=      5-min Rain = 0
KPA1 100325Z 22005KT 07/02 A3009 RMK A01 T00670015  RH  069%=      5-min Rain = 0
KPA1 100326Z 21006KT 07/02 A3009 RMK A01 T00670015  RH  069%=      5-min Rain = 0
KPA1 100327Z 21005KT 07/02 A3009 RMK A01 T00660015  RH  070%=      5-min Rain = 0
KPA1 100328Z 21006KT 07/02 A3009 RMK A01 T00650015  RH  070%=      5-min Rain = 0
KPA1 100329Z 21007KT 07/01 A3009 RMK A01 T00650014  RH  070%=      5-min Rain = 0
KPA1 100330Z 21006KT 07/02 A3009 RMK A01 T00670016  RH  070%=      5-min Rain = 0
KPA1 100331Z 21006KT 07/02 A3009 RMK A01 T00670016  RH  070%=      5-min Rain = 0
KPA1 100332Z 21006KT 07/02 A3009 RMK A01 T00670016  RH  070%=      5-min Rain = 0
KPA1 100333Z 21006KT 07/02 A3009 RMK A01 T00670015  RH  069%=      5-min Rain = 0
KPA1 100334Z 21006KT 07/02 A3009 RMK A01 T00660015  RH  070%=      5-min Rain = 0
KPA1 100335Z 21005KT 06/02 A3009 RMK A01 T00640015  RH  071%=      5-min Rain = 0
KPA1 100336Z 21005KT 06/02 A3009 RMK A01 T00620015  RH  072%=      5-min Rain = 0
KPA1 100337Z 20004KT 06/02 A3009 RMK A01 T00620016  RH  072%=      5-min Rain = 0
KPA1 100338Z 21005KT 06/02 A3009 RMK A01 T00610016  RH  073%=      5-min Rain = 0
KPA1 100339Z 21005KT 06/02 A3009 RMK A01 T00610017  RH  073%=      5-min Rain = 0
KPA1 100340Z 20004KT 06/02 A3009 RMK A01 T00620018  RH  073%=      5-min Rain = 0
KPA1 100341Z 21005KT 06/02 A3009 RMK A01 T00610017  RH  073%=      5-min Rain = 0
KPA1 100342Z 20004KT 06/02 A3009 RMK A01 T00620016  RH  073%=      5-min Rain = 0
KPA1 100343Z 21004KT 06/02 A3009 RMK A01 T00610017  RH  073%=      5-min Rain = 0
KPA1 100344Z 21004KT 06/02 A3009 RMK A01 T00600019  RH  075%=      5-min Rain = 0
KPA1 100345Z 21005KT 06/02 A3009 RMK A01 T00590019  RH  075%=      5-min Rain = 0
KPA1 100346Z 21004KT 06/02 A3009 RMK A01 T00590019  RH  075%=      5-min Rain = 0
KPA1 100347Z 21005KT 06/02 A3009 RMK A01 T00590019  RH  075%=      5-min Rain = 0
KPA1 100348Z 21005KT 06/02 A3009 RMK A01 T00590019  RH  075%=      5-min Rain = 0
KPA1 100349Z 22005KT 06/02 A3009 RMK A01 T00590018  RH  075%=      5-min Rain = 0
KPA1 100350Z 22004KT 06/02 A3009 RMK A01 T00580015  RH  074%=      5-min Rain = 0
KPA1 100351Z 22005KT 06/01 A3009 RMK A01 T00570013  RH  073%=      5-min Rain = 0
KPA1 100352Z 22004KT 06/01 A3009 RMK A01 T00560012  RH  073%=      5-min Rain = 0
KPA1 100353Z 22005KT 06/01 A3009 RMK A01 T00560012  RH  073%=      5-min Rain = 0
KPA1 100354Z 21004KT 06/01 A3009 RMK A01 T00560013  RH  074%=      5-min Rain = 0
KPA1 100355Z 21004KT 06/01 A3009 RMK A01 T00560013  RH  074%=      5-min Rain = 0
KPA1 100356Z 21004KT 06/01 A3009 RMK A01 T00570014  RH  074%=      5-min Rain = 0
KPA1 100357Z 21004KT 06/02 A3009 RMK A01 T00570015  RH  074%=      5-min Rain = 0
KPA1 100358Z 21003KT 06/01 A3009 RMK A01 T00570014  RH  074%=      5-min Rain = 0
KPA1 100359Z 22003KT 06/01 A3009 RMK A01 T00550013  RH  074%=      5-min Rain = 0
KPA1 100400Z 22003KT 05/01 A3009 RMK A01 T00540012  RH  074%=      5-min Rain = 0
KPA1 100401Z 22003KT 05/01 A3009 RMK A01 T00530012  RH  075%=      5-min Rain = 0
KPA1 100402Z 22004KT 05/01 A3009 RMK A01 T00530012  RH  075%=      5-min Rain = 0
KPA1 100403Z 22004KT 05/01 A3009 RMK A01 T00530012  RH  074%=      5-min Rain = 0
KPA1 100404Z 22004KT 06/01 A3009 RMK A01 T00550011  RH  073%=      5-min Rain = 0
KPA1 100405Z 23004KT 06/01 A3009 RMK A01 T00560011  RH  073%=      5-min Rain = 0
KPA1 100406Z 23004KT 06/01 A3009 RMK A01 T00550009  RH  072%=      5-min Rain = 0
KPA1 100407Z 23004KT 05/01 A3009 RMK A01 T00530009  RH  073%=      5-min Rain = 0
KPA1 100408Z 23004KT 05/01 A3009 RMK A01 T00520008  RH  073%=      5-min Rain = 0
KPA1 100409Z 23004KT 05/01 A3009 RMK A01 T00520007  RH  072%=      5-min Rain = 0
KPA1 100410Z 23004KT 05/00 A3009 RMK A01 T00520004  RH  071%=      5-min Rain = 0
KPA1 100411Z 23004KT 05/00 A3009 RMK A01 T00520003  RH  071%=      5-min Rain = 0
KPA1 100412Z 24004KT 05/00 A3009 RMK A01 T00500002  RH  071%=      5-min Rain = 0
KPA1 100413Z 24004KT 05/00 A3009 RMK A01 T00490002  RH  071%=      5-min Rain = 0
KPA1 100414Z 24005KT 05/00 A3009 RMK A01 T00490001  RH  071%=      5-min Rain = 0
KPA1 100415Z 24006KT 05/M00 A3009 RMK A01 T00481001  RH  070%=      5-min Rain = 0
KPA1 100416Z 23006KT 05/M00 A3009 RMK A01 T00471003  RH  070%=      5-min Rain = 0
KPA1 100417Z 23005KT 05/M00 A3009 RMK A01 T00471002  RH  070%=      5-min Rain = 0
KPA1 100418Z 23005KT 05/M00 A3009 RMK A01 T00471002  RH  071%=      5-min Rain = 0
KPA1 100419Z 23004KT 05/M00 A3009 RMK A01 T00481001  RH  071%=      5-min Rain = 0
KPA1 100420Z 23004KT 05/00 A3009 RMK A01 T00490000  RH  071%=      5-min Rain = 0
KPA1 100421Z 23004KT 05/00 A3009 RMK A01 T005000-0  RH  070%=      5-min Rain = 0
KPA1 100422Z 23004KT 05/M00 A3009 RMK A01 T00501001  RH  070%=      5-min Rain = 0
KPA1 100423Z 23005KT 05/00 A3009 RMK A01 T00500000  RH  070%=      5-min Rain = 0
KPA1 100424Z 23005KT 05/00 A3009 RMK A01 T00510000  RH  070%=      5-min Rain = 0
KPA1 100425Z 23005KT 05/00 A3009 RMK A01 T005000-0  RH  070%=      5-min Rain = 0
KPA1 100426Z 23005KT 05/M00 A3009 RMK A01 T00491001  RH  070%=      5-min Rain = 0
KPA1 100427Z 22005KT 05/00 A3009 RMK A01 T00490000  RH  071%=      5-min Rain = 0
KPA1 100428Z 22005KT 05/00 A3009 RMK A01 T00500002  RH  071%=      5-min Rain = 0
KPA1 100429Z 22004KT 05/00 A3009 RMK A01 T00500001  RH  071%=      5-min Rain = 0
KPA1 100430Z 22005KT 05/00 A3009 RMK A01 T00510001  RH  070%=      5-min Rain = 0
KPA1 100431Z 22005KT 05/00 A3009 RMK A01 T00510001  RH  070%=      5-min Rain = 0
KPA1 100432Z 22005KT 05/00 A3009 RMK A01 T00500002  RH  071%=      5-min Rain = 0
KPA1 100433Z 22004KT 05/00 A3009 RMK A01 T00500002  RH  071%=      5-min Rain = 0
KPA1 100434Z 23005KT 05/00 A3009 RMK A01 T00500003  RH  072%=      5-min Rain = 0
KPA1 100435Z 23004KT 05/00 A3009 RMK A01 T00500004  RH  072%=      5-min Rain = 0
KPA1 100436Z 23004KT 05/00 A3009 RMK A01 T00490004  RH  072%=      5-min Rain = 0
KPA1 100437Z 22003KT 05/00 A3009 RMK A01 T00470002  RH  072%=      5-min Rain = 0
KPA1 100438Z 22003KT 05/00 A3009 RMK A01 T00450000  RH  073%=      5-min Rain = 0
KPA1 100439Z 22003KT 04/M00 A3009 RMK A01 T00421002  RH  073%=      5-min Rain = 0
KPA1 100440Z 21002KT 04/M01 A3009 RMK A01 T00391005  RH  073%=      5-min Rain = 0
KPA1 100441Z 20002KT 04/M00 A3009 RMK A01 T00371004  RH  074%=      5-min Rain = 0
KPA1 100442Z 20002KT 04/M00 A3009 RMK A01 T00361004  RH  075%=      5-min Rain = 0
KPA1 100443Z 21002KT 03/M00 A3009 RMK A01 T00341003  RH  077%=      5-min Rain = 0
KPA1 100444Z 21002KT 03/00 A3009 RMK A01 T00340002  RH  079%=      5-min Rain = 0
KPA1 100445Z 21002KT 04/01 A3009 RMK A01 T00350005  RH  081%=      5-min Rain = 0
KPA1 100446Z 21003KT 04/00 A3009 RMK A01 T00360004  RH  080%=      5-min Rain = 0
KPA1 100447Z 21003KT 04/01 A3009 RMK A01 T00370006  RH  080%=      5-min Rain = 0
KPA1 100448Z 22003KT 04/01 A3009 RMK A01 T00390008  RH  080%=      5-min Rain = 0
KPA1 100449Z 22003KT 04/01 A3009 RMK A01 T00400005  RH  078%=      5-min Rain = 0
KPA1 100450Z 22004KT 04/00 A3009 RMK A01 T00420001  RH  075%=      5-min Rain = 0
KPA1 100451Z 22004KT 04/00 A3009 RMK A01 T00430001  RH  074%=      5-min Rain = 0
KPA1 100452Z 22004KT 05/00 A3009 RMK A01 T00450002  RH  074%=      5-min Rain = 0
KPA1 100453Z 23004KT 05/00 A3009 RMK A01 T00460004  RH  074%=      5-min Rain = 0
KPA1 100454Z 22005KT 05/00 A3009 RMK A01 T00470003  RH  073%=      5-min Rain = 0
KPA1 100455Z 23004KT 05/00 A3009 RMK A01 T00470002  RH  073%=      5-min Rain = 0
KPA1 100456Z 23004KT 05/00 A3009 RMK A01 T00470002  RH  073%=      5-min Rain = 0
KPA1 100457Z 23004KT 05/00 A3009 RMK A01 T00470003  RH  073%=      5-min Rain = 0
KPA1 100458Z 23004KT 05/00 A3009 RMK A01 T00480002  RH  072%=      5-min Rain = 0
KPA1 100459Z 23004KT 05/00 A3009 RMK A01 T00480002  RH  072%=      5-min Rain = 0
KPA1 100500Z 23004KT 05/00 A3009 RMK A01 T00480002  RH  072%=      5-min Rain = 0
KPA1 100501Z 23004KT 05/00 A3009 RMK A01 T00490002  RH  072%=      5-min Rain = 0
KPA1 100502Z 23004KT 05/M00 A3009 RMK A01 T00471001  RH  071%=      5-min Rain = 0
KPA1 100503Z 23004KT 05/M00 A3009 RMK A01 T00451002  RH  071%=      5-min Rain = 0
KPA1 100504Z 23004KT 04/M00 A3009 RMK A01 T00431003  RH  072%=      5-min Rain = 0
KPA1 100505Z 23004KT 04/M00 A3009 RMK A01 T00411003  RH  073%=      5-min Rain = 0
KPA1 100506Z 23004KT 04/00 A3009 RMK A01 T004100-0  RH  075%=      5-min Rain = 0
KPA1 100507Z 23004KT 04/00 A3009 RMK A01 T00410001  RH  075%=      5-min Rain = 0
KPA1 100508Z 23003KT 04/00 A3009 RMK A01 T00430004  RH  076%=      5-min Rain = 0
KPA1 100509Z 23003KT 04/00 A3009 RMK A01 T00440004  RH  075%=      5-min Rain = 0
KPA1 100510Z 22003KT 04/00 A3008 RMK A01 T00430003  RH  075%=      5-min Rain = 0
KPA1 100511Z 22003KT 04/01 A3008 RMK A01 T00440006  RH  076%=      5-min Rain = 0
KPA1 100512Z 22003KT 04/01 A3008 RMK A01 T00440007  RH  077%=      5-min Rain = 0
KPA1 100513Z 21003KT 04/01 A3008 RMK A01 T00430006  RH  077%=      5-min Rain = 0
KPA1 100514Z 21002KT 04/01 A3008 RMK A01 T00430005  RH  076%=      5-min Rain = 0
KPA1 100515Z 21002KT 04/01 A3008 RMK A01 T00430006  RH  077%=      5-min Rain = 0
KPA1 100516Z 21002KT 04/01 A3008 RMK A01 T00420005  RH  077%=      5-min Rain = 0
KPA1 100517Z 21002KT 04/01 A3008 RMK A01 T00410006  RH  078%=      5-min Rain = 0
KPA1 100518Z 21002KT 04/01 A3008 RMK A01 T00410008  RH  079%=      5-min Rain = 0
KPA1 100519Z 21003KT 04/01 A3008 RMK A01 T00420009  RH  079%=      5-min Rain = 0
KPA1 100520Z 21003KT 04/01 A3008 RMK A01 T00420009  RH  079%=      5-min Rain = 0
KPA1 100521Z 20003KT 04/01 A3008 RMK A01 T00430010  RH  079%=      5-min Rain = 0
KPA1 100522Z 20003KT 04/01 A3008 RMK A01 T00440011  RH  079%=      5-min Rain = 0
KPA1 100523Z 20004KT 05/01 A3008 RMK A01 T00450011  RH  078%=      5-min Rain = 0
KPA1 100524Z 20004KT 05/01 A3008 RMK A01 T00460011  RH  078%=      5-min Rain = 0
KPA1 100525Z 20004KT 05/01 A3008 RMK A01 T00470011  RH  077%=      5-min Rain = 0
KPA1 100526Z 20004KT 05/01 A3008 RMK A01 T00480008  RH  075%=      5-min Rain = 0
KPA1 100527Z 19004KT 05/01 A3008 RMK A01 T00470005  RH  074%=      5-min Rain = 0
KPA1 100528Z 19004KT 04/00 A3008 RMK A01 T00440003  RH  074%=      5-min Rain = 0
KPA1 100529Z 19004KT 04/00 A3008 RMK A01 T00430001  RH  075%=      5-min Rain = 0
KPA1 100530Z 19004KT 04/00 A3008 RMK A01 T00420001  RH  075%=      5-min Rain = 0
KPA1 100531Z 18004KT 04/00 A3008 RMK A01 T00410000  RH  075%=      5-min Rain = 0
KPA1 100532Z 18004KT 04/M00 A3008 RMK A01 T00401001  RH  075%=      5-min Rain = 0
KPA1 100533Z 18004KT 04/M00 A3008 RMK A01 T00391001  RH  075%=      5-min Rain = 0
KPA1 100534Z 18004KT 04/M00 A3008 RMK A01 T00381001  RH  075%=      5-min Rain = 0
KPA1 100535Z 18004KT 04/M00 A3008 RMK A01 T00381001  RH  075%=      5-min Rain = 0
KPA1 100536Z 18004KT 04/M00 A3008 RMK A01 T00381001  RH  076%=      5-min Rain = 0
KPA1 100537Z 18005KT 04/M00 A3008 RMK A01 T00391001  RH  075%=      5-min Rain = 0
KPA1 100538Z 18005KT 04/M00 A3008 RMK A01 T00391001  RH  075%=      5-min Rain = 0
KPA1 100539Z 17004KT 04/00 A3008 RMK A01 T003900-0  RH  075%=      5-min Rain = 0
KPA1 100540Z 17005KT 04/00 A3008 RMK A01 T00390000  RH  076%=      5-min Rain = 0
KPA1 100541Z 17005KT 04/M00 A3008 RMK A01 T00381001  RH  076%=      5-min Rain = 0
KPA1 100542Z 17005KT 04/M00 A3008 RMK A01 T00381001  RH  076%=      5-min Rain = 0
KPA1 100543Z 18006KT 04/M00 A3008 RMK A01 T00371001  RH  076%=      5-min Rain = 0
KPA1 100544Z 18006KT 04/M00 A3008 RMK A01 T00371002  RH  076%=      5-min Rain = 0
KPA1 100545Z 17006KT 04/M00 A3008 RMK A01 T00351003  RH  076%=      5-min Rain = 0
KPA1 100546Z 18005KT 03/M00 A3008 RMK A01 T00341003  RH  077%=      5-min Rain = 0
KPA1 100547Z 18005KT 03/M00 A3008 RMK A01 T00331003  RH  077%=      5-min Rain = 0
KPA1 100548Z 18004KT 03/M00 A3008 RMK A01 T00321003  RH  078%=      5-min Rain = 0
KPA1 100549Z 17005KT 03/M00 A3008 RMK A01 T00321003  RH  078%=      5-min Rain = 0
KPA1 100550Z 18005KT 03/M00 A3008 RMK A01 T00321002  RH  078%=      5-min Rain = 0
KPA1 100551Z 18005KT 03/M00 A3008 RMK A01 T00311002  RH  079%=      5-min Rain = 0
KPA1 100552Z 18006KT 03/M00 A3008 RMK A01 T00311001  RH  079%=      5-min Rain = 0
KPA1 100553Z 18005KT 03/M00 A3007 RMK A01 T00311002  RH  079%=      5-min Rain = 0
KPA1 100554Z 19005KT 03/M00 A3008 RMK A01 T00311001  RH  079%=      5-min Rain = 0
KPA1 100555Z 18005KT 03/M00 A3007 RMK A01 T00311002  RH  079%=      5-min Rain = 0
KPA1 100556Z 17006KT 03/M00 A3007 RMK A01 T00291003  RH  079%=      5-min Rain = 0
KPA1 100557Z 18006KT 03/M01 A3007 RMK A01 T00271005  RH  080%=      5-min Rain = 0
KPA1 100558Z 18006KT 03/M01 A3007 RMK A01 T00251005  RH  081%=      5-min Rain = 0
KPA1 100559Z 19005KT 02/M01 A3007 RMK A01 T00241005  RH  081%=      5-min Rain = 0

Page generated in 0.0967 seconds.